KC5DAQ-22 Weather Reports


time (UTC)temp
F
wind
direction
speed
knots
gust
knots
rain 1hr
in
rain 24hr
in
rain mn
in
humidity
%
barometer
mb
20260903123731 81 80 0.9 3.5 0.02 0.12 0.12 93 1012.4
20260903123632 81 80 1.7 3.5 0.02 0.12 0.12 93 1012.3
20260903123532 81 80 1.7 3.5 0.02 0.12 0.12 93 1012.3
20260903123432 81 79 1.7 3.5 0.02 0.12 0.12 93 1012.3
20260903123331 81 79 1.7 3.5 0.03 0.12 0.12 93 1012.3
20260903123230 81 79 1.7 3.5 0.03 0.12 0.12 93 1012.2
20260903123132 81 79 1.7 3.5 0.03 0.12 0.12 93 1012.2
20260903123031 81 79 2.6 3.5 0.03 0.12 0.12 93 1012.1
20260903122932 81 79 2.6 3.5 0.04 0.12 0.12 93 1012.2
20260903122831 81 102 1.7 3.5 0.04 0.12 0.12 93 1012.1
20260903122730 81 103 1.7 3.5 0.05 0.12 0.12 93 1012.0
20260903122631 81 103 2.6 3.5 0.05 0.12 0.12 93 1012.1
20260903122532 81 107 2.6 3.5 0.06 0.12 0.12 93 1012.1
20260903122431 81 103 1.7 3.5 0.06 0.12 0.12 93 1012.1
20260903122331 81 103 1.7 3.5 0.07 0.12 0.12 93 1012.0
20260903122231 81 97 1.7 3.5 0.07 0.12 0.12 93 1012.0
20260903122131 81 94 1.7 3.5 0.08 0.12 0.12 93 1012.0
20260903122031 81 137 0.9 3.5 0.09 0.12 0.12 93 1011.9
20260903121931 81 149 1.7 4.3 0.09 0.12 0.12 93 1011.8
20260903121833 81 161 1.7 5.2 0.10 0.12 0.12 93 1011.8
20260903121732 81 128 1.7 7.8 0.10 0.12 0.12 93 1011.8
20260903121633 81 127 1.7 7.8 0.10 0.12 0.12 93 1011.8
20260903121532 81 161 1.7 7.8 0.10 0.12 0.12 93 1011.7
20260903121432 81 147 1.7 7.8 0.11 0.12 0.12 93 1011.7
20260903121331 81 131 1.7 7.8 0.11 0.12 0.12 93 1011.7
20260903121231 81 138 1.7 7.8 0.11 0.12 0.12 93 1011.7
20260903121131 81 149 2.6 7.8 0.11 0.12 0.12 93 1011.6
20260903121031 81 135 3.5 7.8 0.11 0.12 0.12 93 1011.6
20260903120931 81 145 2.6 7.8 0.11 0.12 0.12 93 1011.6
20260903120831 81 148 1.7 7.8 0.12 0.12 0.12 93 1011.5
20260903120731 81 93 0.9 4.3 0.12 0.12 0.12 93 1011.6
20260903120632 81 93 0.9 4.3 0.12 0.12 0.12 93 1011.6
20260903120531 81 93 0.9 4.3 0.12 0.12 0.12 93 1011.6
20260903120432 81 110 0.9 4.3 0.12 0.12 0.12 93 1011.7
20260903120331 81 130 1.7 4.3 0.12 0.12 0.12 93 1011.7
20260903120233 81 130 1.7 4.3 0.12 0.12 0.12 93 1011.7
20260903120131 81 94 2.6 4.3 0.12 0.12 0.12 93 1011.8
20260903120032 81 94 2.6 4.3 0.12 0.12 0.12 93 1011.8
20260903115933 81 96 1.7 4.3 0.12 0.00 0.12 93 1011.8
20260903115832 81 48 1.7 4.3 0.12 0.00 0.11 93 1011.9
20260903115732 81 48 1.7 4.3 0.11 0.00 0.11 92 1011.9
20260903115631 81 47 2.6 4.3 0.11 0.00 0.11 92 1011.8
20260903115533 81 47 2.6 4.3 0.11 0.00 0.11 92 1011.9
20260903115431 81 47 2.6 4.3 0.11 0.00 0.11 92 1011.9
20260903115332 81 47 2.6 4.3 0.11 0.00 0.11 92 1011.9
20260903115230 82 47 3.5 4.3 0.11 0.00 0.11 92 1011.9
20260903115132 82 45 3.5 4.3 0.11 0.00 0.11 92 1011.9
20260903115032 82 41 3.5 4.3 0.11 0.00 0.11 92 1011.9
20260903114932 82 35 3.5 4.3 0.11 0.00 0.11 92 1011.9
20260903114830 82 45 3.5 4.3 0.11 0.00 0.11 92 1011.8
20260903114733 82 45 3.5 4.3 0.11 0.00 0.11 92 1011.8
20260903114632 82 45 2.6 3.5 0.11 0.00 0.11 92 1011.8
20260903114532 82 45 2.6 3.5 0.11 0.00 0.11 91 1011.8
20260903114431 82 45 2.6 3.5 0.11 0.00 0.11 91 1011.7
20260903114331 82 58 1.7 4.3 0.11 0.00 0.11 91 1011.8
20260903114227 82 120 1.7 4.3 0.11 0.00 0.10 91 1011.6
20260903114127 82 121 0.9 8.7 0.11 0.00 0.10 91 1011.6
20260903114025 82 121 0.9 8.7 0.10 0.00 0.10 91 1011.6
20260903113923 82 121 1.7 8.7 0.10 0.00 0.10 91 1011.6
20260903113822 82 121 1.7 8.7 0.10 0.00 0.10 91 1011.5
20260903113720 82 123 0.9 8.7 0.10 0.00 0.10 91 1011.6
20260903113619 82 121 1.7 8.7 0.10 0.00 0.10 91 1011.5
20260903113517 82 118 1.7 8.7 0.10 0.00 0.10 90 1011.6
20260903113415 82 162 2.6 8.7 0.10 0.00 0.10 90 1011.5
20260903113314 82 183 3.5 8.7 0.09 0.00 0.09 90 1011.6
20260903113212 82 179 3.5 8.7 0.09 0.00 0.09 90 1011.5
20260903113111 82 158 2.6 6.1 0.09 0.00 0.09 90 1011.5
20260903113012 82 183 2.6 9.6 0.08 0.00 0.08 90 1011.5
20260903112912 82 168 2.6 9.6 0.08 0.00 0.08 90 1011.5
20260903112812 83 166 2.6 9.6 0.08 0.00 0.08 89 1011.4
20260903112712 83 165 3.5 9.6 0.07 0.00 0.07 89 1011.5
20260903112613 83 178 4.3 9.6 0.07 0.00 0.06 89 1011.6
20260903112513 83 243 3.5 9.6 0.06 0.00 0.06 89 1011.6
20260903112412 83 193 3.5 9.6 0.05 0.00 0.05 89 1011.6
20260903112312 83 183 4.3 9.6 0.05 0.00 0.04 89 1011.6
20260903112211 83 195 5.2 9.6 0.05 0.00 0.04 89 1011.6
20260903112111 83 175 5.2 9.6 0.04 0.00 0.04 89 1011.6
20260903112013 83 178 4.3 8.7 0.03 0.00 0.03 89 1011.6
20260903111912 83 179 5.2 8.7 0.03 0.00 0.03 89 1011.6
20260903111812 83 171 6.1 8.7 0.02 0.00 0.02 88 1011.7
20260903111711 83 193 5.2 8.7 0.02 0.00 0.02 89 1011.7
20260903111611 83 230 3.5 8.7 0.02 0.00 0.02 89 1011.7
20260903111513 83 227 4.3 8.7 0.02 0.00 0.02 88 1011.7
20260903111411 83 0 3.5 8.7 0.01 0.00 0.01 88 1011.7
20260903111311 83 0 3.5 8.7 0.01 0.00 0.01 88 1011.7
20260903111211 83 237 5.2 8.7 0.01 0.00 0.01 88 1011.7
20260903111113 83 238 5.2 8.7 0.01 0.00 0.01 88 1011.7
20260903111011 83 190 5.2 8.7 0.01 0.00 0.01 88 1011.7
20260903110912 83 231 5.2 8.7 0.01 0.00 0.00 88 1011.7
20260903110812 83 257 4.3 6.1 0.00 0.00 0.00 88 1011.8
20260903110712 83 217 3.5 4.3 0.00 0.00 0.00 88 1011.7
20260903110611 83 171 2.6 4.3 0.00 0.00 0.00 88 1011.7
20260903110511 83 183 1.7 4.3 0.00 0.00 0.00 88 1011.7
20260903110412 83 180 1.7 4.3 0.00 0.00 0.00 88 1011.6
20260903110311 83 183 0.9 4.3 0.00 0.00 0.00 88 1011.6
20260903110211 83 134 0.9 4.3 0.00 0.00 0.00 88 1011.6
20260903110113 83 152 1.7 4.3 0.00 0.00 0.00 88 1011.7
20260903110012 83 196 2.6 4.3 0.00 0.00 0.00 88 1011.6
20260903105911 83 190 1.7 4.3 0.00 0.00 0.00 88 1011.6
20260903105812 83 161 0.9 4.3 0.00 0.00 0.00 88 1011.7
20260903105712 83 162 1.7 4.3 0.00 0.00 0.00 88 1011.6
20260903105611 83 188 2.6 4.3 0.00 0.00 0.00 88 1011.6
20260903105512 83 159 1.7 4.3 0.00 0.00 0.00 88 1011.6
20260903105412 83 87 1.7 4.3 0.00 0.00 0.00 88 1011.6
20260903105311 83 154 1.7 3.5 0.00 0.00 0.00 88 1011.6
20260903105211 83 162 1.7 3.5 0.00 0.00 0.00 88 1011.6
20260903105112 83 171 1.7 3.5 0.00 0.00 0.00 88 1011.5
20260903105011 83 189 1.7 4.3 0.00 0.00 0.00 88 1011.6
20260903104911 83 162 0.9 4.3 0.00 0.00 0.00 88 1011.6
20260903104811 83 166 0.9 4.3 0.00 0.00 0.00 88 1011.6
20260903104712 83 165 1.7 4.3 0.00 0.00 0.00 88 1011.6
20260903104611 83 171 1.7 4.3 0.00 0.00 0.00 88 1011.6
20260903104510 83 133 1.7 4.3 0.00 0.00 0.00 88 1011.6
20260903104410 83 165 1.7 4.3 0.00 0.00 0.00 88 1011.5
20260903104311 83 180 2.6 4.3 0.00 0.00 0.00 88 1011.5
20260903104211 83 140 2.6 4.3 0.00 0.00 0.00 88 1011.5
20260903104111 83 148 2.6 4.3 0.00 0.00 0.00 88 1011.5
20260903104012 83 104 1.7 4.3 0.00 0.00 0.00 88 1011.5
20260903103911 83 151 2.6 4.3 0.00 0.00 0.00 88 1011.4
20260903103811 83 134 2.6 4.3 0.00 0.00 0.00 88 1011.5
20260903103711 83 141 2.6 4.3 0.00 0.00 0.00 88 1011.5
20260903103611 83 149 2.6 4.3 0.00 0.00 0.00 88 1011.5
20260903103512 83 179 2.6 4.3 0.00 0.00 0.00 88 1011.4
20260903103411 83 144 2.6 4.3 0.00 0.00 0.00 88 1011.5
20260903103311 83 137 1.7 4.3 0.00 0.00 0.00 88 1011.5
20260903103211 83 128 1.7 4.3 0.00 0.00 0.00 88 1011.5
20260903103111 83 155 1.7 4.3 0.00 0.00 0.00 88 1011.5
20260903103012 83 157 1.7 4.3 0.00 0.00 0.00 88 1011.5
20260903102911 83 159 1.7 4.3 0.00 0.00 0.00 88 1011.4
20260903102809 83 140 0.9 4.3 0.00 0.00 0.00 88 1011.4
20260903102709 83 161 0.9 4.3 0.00 0.00 0.00 88 1011.4
20260903102612 83 158 1.7 4.3 0.00 0.00 0.00 88 1011.4
20260903102511 83 157 1.7 4.3 0.00 0.00 0.00 88 1011.4
20260903102411 83 157 0.9 4.3 0.00 0.00 0.00 88 1011.5
20260903102311 83 144 1.7 4.3 0.00 0.00 0.00 87 1011.5
20260903102211 83 149 1.7 4.3 0.00 0.00 0.00 87 1011.5
20260903102111 83 133 1.7 5.2 0.00 0.00 0.00 87 1011.4
20260903102011 83 130 1.7 5.2 0.00 0.00 0.00 87 1011.4
20260903101912 83 141 0.9 5.2 0.00 0.00 0.00 87 1011.4
20260903101811 83 141 0.9 5.2 0.00 0.00 0.00 87 1011.4
20260903101710 83 158 1.7 5.2 0.00 0.00 0.00 87 1011.4
20260903101611 83 169 1.7 5.2 0.00 0.00 0.00 87 1011.4
20260903101511 83 94 0.9 6.1 0.00 0.00 0.00 87 1011.4
20260903101408 83 128 1.7 6.1 0.00 0.00 0.00 87 1011.4
20260903101304 83 134 2.6 6.1 0.00 0.00 0.00 87 1011.4
20260903101203 84 168 1.7 6.1 0.00 0.00 0.00 87 1011.3
20260903101102 84 148 2.6 6.1 0.00 0.00 0.00 87 1011.3
20260903101004 83 114 2.6 6.1 0.00 0.00 0.00 87 1011.3
20260903100902 84 173 2.6 6.1 0.00 0.00 0.00 87 1011.4
20260903100803 84 147 1.7 6.1 0.00 0.00 0.00 87 1011.3
20260903100703 84 130 2.6 6.1 0.00 0.00 0.00 87 1011.4
20260903100603 84 125 2.6 6.1 0.00 0.00 0.00 87 1011.4
20260903100502 84 172 2.6 5.2 0.00 0.00 0.00 87 1011.3
20260903100402 84 179 1.7 5.2 0.00 0.00 0.00 87 1011.3
20260903100302 84 185 1.7 5.2 0.00 0.00 0.00 87 1011.3
20260903100202 84 128 2.6 6.1 0.00 0.00 0.00 87 1011.3
20260903100004 84 168 3.5 6.1 0.00 0.00 0.00 87 1011.3
20260903095901 84 148 2.6 6.1 0.00 0.00 0.00 87 1011.2
20260903095801 84 199 3.5 6.1 0.00 0.00 0.00 87 1011.3
20260903095703 84 183 2.6 6.1 0.00 0.00 0.00 87 1011.3
20260903095603 84 178 2.6 6.1 0.00 0.00 0.00 87 1011.2
20260903095502 84 192 1.7 6.1 0.00 0.00 0.00 86 1011.3
20260903095404 84 193 2.6 6.1 0.00 0.00 0.00 86 1011.2
20260903095305 84 140 2.6 6.1 0.00 0.00 0.00 86 1011.3
20260903095202 84 207 2.6 6.1 0.00 0.00 0.00 87 1011.2
20260903095102 84 144 3.5 6.1 0.00 0.00 0.00 87 1011.2
20260903095005 84 199 2.6 6.1 0.00 0.00 0.00 87 1011.2
20260903094904 84 186 2.6 6.1 0.00 0.00 0.00 87 1011.3
20260903094801 84 169 2.6 6.1 0.00 0.00 0.00 87 1011.3
20260903094659 84 182 1.7 6.1 0.00 0.00 0.00 87 1011.2
20260903094557 84 169 3.5 6.1 0.00 0.00 0.00 87 1011.2
20260903094456 84 186 3.5 6.1 0.00 0.00 0.00 86 1011.3
20260903094355 84 206 2.6 6.1 0.00 0.00 0.00 86 1011.2
20260903094252 84 125 3.5 5.2 0.00 0.00 0.00 86 1011.2
20260903094151 84 185 3.5 5.2 0.00 0.00 0.00 86 1011.2
20260903094050 84 144 2.6 9.6 0.00 0.00 0.00 86 1011.2
20260903093949 84 141 2.6 9.6 0.00 0.00 0.00 86 1011.3
20260903093846 84 131 2.6 9.6 0.00 0.00 0.00 86 1011.3
20260903093746 84 130 1.7 9.6 0.00 0.00 0.00 86 1011.2
20260903093643 84 111 2.6 9.6 0.00 0.00 0.00 86 1011.2
20260903093542 84 166 2.6 9.6 0.00 0.00 0.00 86 1011.3
20260903093441 84 206 2.6 9.6 0.00 0.00 0.00 86 1011.2
20260903093339 84 169 1.7 9.6 0.00 0.00 0.00 86 1011.3
20260903093234 84 161 3.5 9.6 0.00 0.00 0.00 86 1011.4
20260903093132 84 158 5.2 9.6 0.00 0.00 0.00 86 1011.2
20260903093032 84 128 3.5 7.8 0.00 0.00 0.00 86 1011.3
20260903092932 84 134 2.6 6.1 0.00 0.00 0.00 86 1011.2
20260903092831 84 154 2.6 6.1 0.00 0.00 0.00 87 1011.3
20260903092732 84 171 3.5 6.1 0.00 0.00 0.00 86 1011.3
20260903092631 84 179 2.6 6.1 0.00 0.00 0.00 86 1011.3
20260903092532 84 182 3.5 6.1 0.00 0.00 0.00 87 1011.3
20260903092431 84 168 4.3 6.1 0.00 0.00 0.00 87 1011.3
20260903092331 84 173 3.5 6.1 0.00 0.00 0.00 87 1011.4
20260903092232 84 118 2.6 6.1 0.00 0.00 0.00 87 1011.3
20260903092133 84 140 2.6 6.1 0.00 0.00 0.00 87 1011.3
20260903092031 84 190 3.5 7.8 0.00 0.00 0.00 87 1011.3
20260903091931 84 182 3.5 7.8 0.00 0.00 0.00 87 1011.3
20260903091831 84 190 2.6 7.8 0.00 0.00 0.00 87 1011.3
20260903091731 84 165 3.5 7.8 0.00 0.00 0.00 87 1011.4
20260903091631 84 172 3.5 7.8 0.00 0.00 0.00 87 1011.4
20260903091532 84 179 2.6 8.7 0.00 0.00 0.00 87 1011.3
20260903091433 84 165 2.6 8.7 0.00 0.00 0.00 87 1011.3
20260903091330 84 127 3.5 8.7 0.00 0.00 0.00 87 1011.4
20260903091230 84 227 3.5 8.7 0.00 0.00 0.00 87 1011.3
20260903091131 83 175 3.5 8.7 0.00 0.00 0.00 87 1011.4
20260903091031 83 137 4.3 8.7 0.00 0.00 0.00 87 1011.4
20260903090931 83 173 4.3 8.7 0.00 0.00 0.00 87 1011.4
20260903090833 83 179 2.6 8.7 0.00 0.00 0.00 87 1011.4
20260903090732 83 120 3.5 8.7 0.00 0.00 0.00 87 1011.3
20260903090631 83 166 4.3 8.7 0.00 0.00 0.00 87 1011.4
20260903090532 83 193 3.5 6.1 0.00 0.00 0.00 87 1011.4
20260903090431 83 145 3.5 6.1 0.00 0.00 0.00 87 1011.4
20260903090331 83 107 2.6 6.1 0.00 0.00 0.00 87 1011.4
20260903090230 83 125 1.7 6.1 0.00 0.00 0.00 87 1011.3
20260903090132 83 130 2.6 6.1 0.00 0.00 0.00 87 1011.4
20260903090032 83 152 3.5 6.1 0.00 0.00 0.00 87 1011.3
20260903085932 83 103 2.6 6.1 0.00 0.00 0.00 87 1011.3
20260903085833 83 144 2.6 6.1 0.00 0.00 0.00 87 1011.3
20260903085731 83 138 2.6 7.8 0.00 0.00 0.00 87 1011.3
20260903085631 83 135 2.6 7.8 0.00 0.00 0.00 87 1011.3
20260903085531 83 166 3.5 7.8 0.00 0.00 0.00 87 1011.3
20260903085432 83 147 3.5 7.8 0.00 0.00 0.00 87 1011.3
20260903085332 83 127 2.6 7.8 0.00 0.00 0.00 87 1011.3
20260903085232 83 127 2.6 7.8 0.00 0.00 0.00 87 1011.3
20260903085132 83 127 2.6 7.8 0.00 0.00 0.00 87 1011.2
20260903085032 83 127 2.6 8.7 0.00 0.00 0.00 87 1011.2
20260903084923 83 164 4.3 8.7 0.00 0.00 0.00 87 1011.2
20260903084823 83 118 3.5 8.7 0.00 0.00 0.00 87 1011.2
20260903084721 83 173 2.6 8.7 0.00 0.00 0.00 87 1011.3
20260903084619 84 178 2.6 8.7 0.00 0.00 0.00 87 1011.2
20260903084519 84 133 1.7 8.7 0.00 0.00 0.00 87 1011.2
20260903084416 84 157 2.6 8.7 0.00 0.00 0.00 87 1011.3
20260903084315 84 113 3.5 8.7 0.00 0.00 0.00 87 1011.2
20260903084215 84 116 3.5 8.7 0.00 0.00 0.00 87 1011.3
20260903084114 84 149 3.5 6.1 0.00 0.00 0.00 87 1011.3
20260903084013 84 234 3.5 6.1 0.00 0.00 0.00 87 1011.2
20260903083911 84 141 2.6 7.8 0.00 0.00 0.00 87 1011.2
20260903083809 84 140 1.7 7.8 0.00 0.00 0.00 87 1011.2
20260903083708 84 142 0.9 7.8 0.00 0.00 0.00 87 1011.2
20260903083608 84 164 1.7 8.7 0.00 0.00 0.00 87 1011.2
20260903083508 84 125 3.5 8.7 0.00 0.00 0.00 87 1011.2
20260903083408 84 188 3.5 8.7 0.00 0.00 0.00 87 1011.2
20260903083308 84 157 3.5 8.7 0.00 0.00 0.00 87 1011.3
20260903083209 84 149 3.5 8.7 0.00 0.00 0.00 87 1011.3
20260903083108 84 78 3.5 8.7 0.00 0.00 0.00 87 1011.2
20260903083008 84 159 1.7 8.7 0.00 0.00 0.00 87 1011.2
20260903082908 84 148 2.6 8.7 0.00 0.00 0.00 87 1011.3
20260903082808 84 138 4.3 8.7 0.00 0.00 0.00 87 1011.3
20260903082707 84 210 3.5 8.7 0.00 0.00 0.00 87 1011.3
20260903082607 84 175 1.7 6.1 0.00 0.00 0.00 87 1011.2
20260903082510 84 175 1.7 6.1 0.00 0.00 0.00 87 1011.3
20260903082407 84 171 2.6 6.1 0.00 0.00 0.00 87 1011.2
20260903082310 84 204 2.6 6.1 0.00 0.00 0.00 87 1011.2
20260903082207 84 123 2.6 6.1 0.00 0.00 0.00 87 1011.3
20260903082110 84 178 2.6 6.1 0.00 0.00 0.00 87 1011.3
20260903082009 84 131 3.5 6.1 0.00 0.00 0.00 87 1011.2
20260903081908 84 164 3.5 6.1 0.00 0.00 0.00 87 1011.2
20260903081808 84 199 3.5 6.1 0.00 0.00 0.00 87 1011.2
20260903081707 84 173 3.5 6.1 0.00 0.00 0.00 87 1011.2
20260903081607 84 161 3.5 6.1 0.00 0.00 0.00 86 1011.2
20260903081508 84 134 2.6 6.1 0.00 0.00 0.00 86 1011.2
20260903081410 84 195 1.7 6.1 0.00 0.00 0.00 86 1011.2
20260903081307 84 157 3.5 6.1 0.00 0.00 0.00 86 1011.2
20260903081207 84 164 3.5 6.1 0.00 0.00 0.00 86 1011.2
20260903081108 84 176 1.7 7.8 0.00 0.00 0.00 86 1011.2
20260903081004 84 147 1.7 7.8 0.00 0.00 0.00 86 1011.1
20260903080902 84 149 2.6 7.8 0.00 0.00 0.00 86 1011.2
20260903080804 84 152 1.7 7.8 0.00 0.00 0.00 86 1011.2
20260903080702 84 237 3.5 7.8 0.00 0.00 0.00 86 1011.1
20260903080603 84 154 3.5 8.7 0.00 0.00 0.00 86 1011.2
20260903080503 84 155 3.5 8.7 0.00 0.00 0.00 86 1011.1
20260903080404 84 166 2.6 8.7 0.00 0.00 0.00 86 1011.2
20260903080302 84 186 3.5 8.7 0.00 0.00 0.00 86 1011.2
20260903080203 84 176 3.5 8.7 0.00 0.00 0.00 86 1011.1
20260903080103 84 175 4.3 8.7 0.00 0.00 0.00 86 1011.1
20260903080003 84 193 4.3 10.4 0.00 0.00 0.00 86 1011.1
20260903075903 84 189 4.3 10.4 0.00 0.00 0.00 86 1011.1
20260903075802 84 186 5.2 10.4 0.00 0.00 0.00 86 1011.1
20260903075704 84 176 5.2 10.4 0.00 0.00 0.00 86 1011.1
20260903075602 84 176 5.2 10.4 0.00 0.00 0.00 86 1011.1
20260903075502 84 178 5.2 10.4 0.00 0.00 0.00 86 1011.2
20260903075403 84 195 3.5 10.4 0.00 0.00 0.00 86 1011.2
20260903075306 84 158 3.5 10.4 0.00 0.00 0.00 86 1011.1
20260903075203 84 168 5.2 10.4 0.00 0.00 0.00 86 1011.2
20260903075103 84 193 5.2 10.4 0.00 0.00 0.00 86 1011.2
20260903075005 84 141 5.2 9.6 0.00 0.00 0.00 86 1011.1
20260903074902 84 171 3.5 9.6 0.00 0.00 0.00 86 1011.2
20260903074802 84 199 2.6 7.8 0.00 0.00 0.00 86 1011.1
20260903074704 84 189 3.5 9.6 0.00 0.00 0.00 86 1011.1
20260903074601 84 189 4.3 9.6 0.00 0.00 0.00 86 1011.1
20260903074503 84 183 3.5 9.6 0.00 0.00 0.00 86 1011.1
20260903074403 84 183 3.5 9.6 0.00 0.00 0.00 86 1011.1
20260903074303 84 161 3.5 9.6 0.00 0.00 0.00 86 1011.1
20260903074202 84 123 3.5 9.6 0.00 0.00 0.00 86 1011.1
20260903074102 84 155 4.3 9.6 0.00 0.00 0.00 86 1011.2
20260903074004 84 157 3.5 9.6 0.00 0.00 0.00 86 1011.1
20260903073902 84 109 3.5 9.6 0.00 0.00 0.00 86 1011.0
20260903073802 84 142 3.5 9.6 0.00 0.00 0.00 86 1011.1
20260903073704 84 178 2.6 7.8 0.00 0.00 0.00 86 1011.1
20260903073602 84 135 3.5 7.8 0.00 0.00 0.00 86 1011.1
20260903073501 84 190 4.3 9.6 0.00 0.00 0.00 86 1011.1
20260903073402 84 202 4.3 9.6 0.00 0.00 0.00 86 1011.2
20260903073302 84 161 4.3 10.4 0.00 0.00 0.00 86 1011.1
20260903073202 84 226 5.2 10.4 0.00 0.00 0.00 86 1011.1
20260903073103 84 180 3.5 11.3 0.00 0.00 0.00 86 1011.1
20260903073003 84 193 3.5 11.3 0.00 0.00 0.00 86 1011.2
20260903072903 84 193 3.5 11.3 0.00 0.00 0.00 86 1011.2
20260903072803 84 193 3.5 11.3 0.00 0.00 0.00 86 1011.1
20260903072703 84 200 3.5 11.3 0.00 0.00 0.00 86 1011.2
20260903072603 84 159 3.5 11.3 0.00 0.00 0.00 86 1011.1
20260903072502 84 247 3.5 11.3 0.00 0.00 0.00 86 1011.1
20260903072402 84 151 5.2 11.3 0.00 0.00 0.00 86 1011.1
20260903072306 84 151 6.1 11.3 0.00 0.00 0.00 86 1011.2
20260903072202 84 120 7.0 11.3 0.00 0.00 0.00 86 1011.1
20260903072103 84 173 6.1 11.3 0.00 0.00 0.00 86 1011.2
20260903072004 84 195 5.2 11.3 0.00 0.00 0.00 86 1011.2
20260903071903 84 200 6.1 9.6 0.00 0.00 0.00 86 1011.1
20260903071802 84 175 5.2 9.6 0.00 0.00 0.00 86 1011.1
20260903071702 84 176 5.2 8.7 0.00 0.00 0.00 86 1011.1
20260903071603 84 149 5.2 9.6 0.00 0.00 0.00 86 1011.1
20260903071502 84 197 5.2 9.6 0.00 0.00 0.00 86 1011.2
20260903071401 84 224 5.2 9.6 0.00 0.00 0.00 86 1011.2
20260903071302 84 185 3.5 9.6 0.00 0.00 0.00 86 1011.1
20260903071203 84 86 3.5 9.6 0.00 0.00 0.00 86 1011.2
20260903071101 84 158 3.5 9.6 0.00 0.00 0.00 86 1011.2
20260903071004 84 240 3.5 9.6 0.00 0.00 0.00 86 1011.2
20260903070903 84 138 3.5 9.6 0.00 0.00 0.00 86 1011.1
20260903070802 84 165 5.2 9.6 0.00 0.00 0.00 86 1011.2
20260903070703 84 131 5.2 9.6 0.00 0.00 0.00 86 1011.2
20260903070604 84 147 4.3 9.6 0.00 0.00 0.00 86 1011.3
20260903070502 84 193 3.5 9.6 0.00 0.00 0.00 86 1011.2
20260903070402 84 203 4.3 9.6 0.00 0.00 0.00 86 1011.2
20260903070304 84 164 5.2 9.6 0.00 0.00 0.00 86 1011.2
20260903070203 84 168 5.2 9.6 0.00 0.00 0.00 86 1011.2
20260903070104 84 169 3.5 9.6 0.00 0.00 0.00 86 1011.2
20260903070001 84 134 3.5 9.6 0.00 0.00 0.00 86 1011.3
20260903065903 84 147 4.3 11.3 0.00 0.00 0.00 86 1011.2
20260903065802 84 210 3.5 11.3 0.00 0.00 0.00 86 1011.3
20260903065702 84 168 3.5 11.3 0.00 0.00 0.00 86 1011.4
20260903065604 84 123 3.5 11.3 0.00 0.00 0.00 86 1011.4
20260903065503 84 142 4.3 11.3 0.00 0.00 0.00 86 1011.4
20260903065401 84 204 5.2 11.3 0.00 0.00 0.00 86 1011.4
20260903065305 84 193 5.2 11.3 0.00 0.00 0.00 86 1011.4
20260903065204 84 220 5.2 11.3 0.00 0.00 0.00 86 1011.5
20260903065102 84 168 5.2 11.3 0.00 0.00 0.00 86 1011.5
20260903065002 84 203 5.2 11.3 0.00 0.00 0.00 86 1011.5
20260903064903 84 214 3.5 7.8 0.00 0.00 0.00 86 1011.5
20260903064802 84 164 3.5 7.8 0.00 0.00 0.00 86 1011.5
20260903064701 84 226 4.3 7.8 0.00 0.00 0.00 86 1011.5
20260903064602 84 164 2.6 7.8 0.00 0.00 0.00 86 1011.6
20260903064504 84 97 2.6 7.8 0.00 0.00 0.00 86 1011.5
20260903064403 84 157 3.5 9.6 0.00 0.00 0.00 86 1011.5
20260903064303 84 124 2.6 9.6 0.00 0.00 0.00 86 1011.5
20260903064203 84 161 3.5 9.6 0.00 0.00 0.00 86 1011.5
20260903064102 84 159 4.3 9.6 0.00 0.00 0.00 86 1011.5
20260903064002 84 202 4.3 9.6 0.00 0.00 0.00 86 1011.6
20260903063904 84 176 3.5 9.6 0.00 0.00 0.00 86 1011.5
20260903063802 84 113 2.6 9.6 0.00 0.00 0.00 86 1011.5
20260903063702 84 166 3.5 9.6 0.00 0.00 0.00 86 1011.5
20260903063602 84 148 5.2 9.6 0.00 0.00 0.00 86 1011.6
20260903063504 84 180 4.3 9.6 0.00 0.00 0.00 86 1011.5
20260903063403 84 172 3.5 7.8 0.00 0.00 0.00 86 1011.6
20260903063303 84 164 3.5 7.8 0.00 0.00 0.00 86 1011.6
20260903063203 84 151 3.5 7.8 0.00 0.00 0.00 86 1011.5
20260903063103 84 165 4.3 7.8 0.00 0.00 0.00 86 1011.6
20260903063003 84 135 3.5 7.8 0.00 0.00 0.00 86 1011.5
20260903062903 84 183 3.5 7.8 0.00 0.00 0.00 86 1011.5
20260903062802 84 141 3.5 7.8 0.00 0.00 0.00 85 1011.6
20260903062702 84 96 3.5 7.8 0.00 0.00 0.00 85 1011.6
20260903062601 84 183 3.5 7.8 0.00 0.00 0.00 85 1011.5
20260903062504 84 82 3.5 7.8 0.00 0.00 0.00 85 1011.5
20260903062402 84 114 4.3 7.8 0.00 0.00 0.00 85 1011.6
20260903062305 84 165 3.5 7.8 0.00 0.00 0.00 85 1011.5
20260903062204 84 141 3.5 7.8 0.00 0.00 0.00 85 1011.5
20260903062102 84 69 3.5 7.8 0.00 0.00 0.00 85 1011.5
20260903062004 84 173 3.5 7.8 0.00 0.00 0.00 85 1011.7
20260903061902 84 227 3.5 7.8 0.00 0.00 0.00 85 1011.7
20260903061802 84 166 3.5 7.8 0.00 0.00 0.00 85 1011.7
20260903061702 84 183 3.5 7.8 0.00 0.00 0.00 85 1011.7
20260903061602 84 192 4.3 7.8 0.00 0.00 0.00 85 1011.8
20260903061505 84 154 4.3 6.1 0.00 0.00 0.00 85 1011.8
20260903061402 84 166 3.5 5.2 0.00 0.00 0.00 85 1011.9
20260903061302 84 206 3.5 5.2 0.00 0.00 0.00 85 1011.9
20260903061203 84 192 3.5 5.2 0.00 0.00 0.00 85 1012.0
20260903061102 84 121 3.5 5.2 0.00 0.00 0.00 85 1011.9
20260903061003 84 197 1.7 5.2 0.00 0.00 0.00 85 1012.0
20260903060903 85 197 0.9 5.2 0.00 0.00 0.00 85 1012.1
20260903060803 85 219 1.7 5.2 0.00 0.00 0.00 85 1012.2
20260903060702 85 148 1.7 5.2 0.00 0.00 0.00 85 1012.1
20260903060603 85 202 1.7 5.2 0.00 0.00 0.00 85 1012.1
20260903060503 85 185 2.6 5.2 0.00 0.00 0.00 85 1012.1
20260903060403 85 197 1.7 5.2 0.00 0.00 0.00 85 1012.2
20260903060303 85 80 1.7 5.2 0.00 0.00 0.00 85 1012.2
20260903060202 85 188 1.7 5.2 0.00 0.00 0.00 85 1012.3
20260903060104 85 149 2.6 5.2 0.00 0.00 0.00 85 1012.3
20260903060003 85 200 2.6 5.2 0.00 0.00 0.00 85 1012.3
20260903055902 85 186 2.6 5.2 0.00 0.00 0.00 85 1012.3
20260903055803 85 164 1.7 5.2 0.00 0.00 0.00 85 1012.3
20260903055702 85 185 2.6 6.1 0.00 0.00 0.00 85 1012.3
20260903055603 85 203 2.6 6.1 0.00 0.00 0.00 85 1012.3
20260903055502 85 180 3.5 6.1 0.00 0.00 0.00 85 1012.3
20260903055403 85 147 3.5 8.7 0.00 0.00 0.00 85 1012.4
20260903055306 85 183 3.5 8.7 0.00 0.00 0.00 85 1012.3
20260903055202 85 189 3.5 8.7 0.00 0.00 0.00 85 1012.3
20260903055103 85 180 2.6 8.7 0.00 0.00 0.00 85 1012.4
20260903055002 85 188 2.6 8.7 0.00 0.00 0.00 85 1012.3
20260903054902 85 193 3.5 8.7 0.00 0.00 0.00 85 1012.4
20260903054803 85 189 3.5 8.7 0.00 0.00 0.00 85 1012.4
20260903054702 85 149 4.3 8.7 0.00 0.00 0.00 85 1012.4
20260903054602 85 152 4.3 8.7 0.00 0.00 0.00 85 1012.4
20260903054503 85 175 4.3 8.7 0.00 0.00 0.00 85 1012.5
20260903054405 85 172 4.3 8.7 0.00 0.00 0.00 85 1012.5
20260903054303 85 186 3.5 8.7 0.00 0.00 0.00 85 1012.5
20260903054202 85 166 3.5 8.7 0.00 0.00 0.00 85 1012.5
20260903054103 85 188 4.3 10.4 0.00 0.00 0.00 85 1012.5
20260903054003 85 176 4.3 10.4 0.00 0.00 0.00 85 1012.5
20260903053902 85 199 3.5 10.4 0.00 0.00 0.00 85 1012.5
20260903053803 85 223 2.6 10.4 0.00 0.00 0.00 85 1012.6
20260903053703 85 207 3.5 10.4 0.00 0.00 0.00 85 1012.5
20260903053602 85 175 3.5 10.4 0.00 0.00 0.00 85 1012.5
20260903053504 85 224 3.5 10.4 0.00 0.00 0.00 85 1012.6
20260903053405 85 227 3.5 10.4 0.00 0.00 0.00 85 1012.6
20260903053302 85 183 5.2 10.4 0.00 0.00 0.00 85 1012.5
20260903053202 85 195 5.2 10.4 0.00 0.00 0.00 85 1012.5
20260903053102 85 214 4.3 7.8 0.00 0.00 0.00 85 1012.4
20260903053003 85 183 4.3 7.8 0.00 0.00 0.00 85 1012.5
20260903052902 85 197 3.5 7.8 0.00 0.00 0.00 85 1012.5
20260903052802 85 172 2.6 8.7 0.00 0.00 0.00 85 1012.3
20260903052703 85 197 1.7 8.7 0.00 0.00 0.00 85 1012.4
20260903052603 85 183 1.7 8.7 0.00 0.00 0.00 85 1012.4
20260903052504 85 165 2.6 8.7 0.00 0.00 0.00 85 1012.4
20260903052403 85 178 2.6 8.7 0.00 0.00 0.00 85 1012.4
20260903052306 85 162 2.6 8.7 0.00 0.00 0.00 85 1012.4
20260903052202 85 165 2.6 8.7 0.00 0.00 0.00 85 1012.4
20260903052102 85 164 2.6 8.7 0.00 0.00 0.00 85 1012.4
20260903052003 85 186 3.5 8.7 0.00 0.00 0.00 85 1012.4
20260903051902 85 133 5.2 8.7 0.00 0.00 0.00 85 1012.4
20260903051802 85 171 4.3 8.7 0.00 0.00 0.00 85 1012.5
20260903051703 85 148 3.5 7.8 0.00 0.00 0.00 85 1012.4
20260903051602 85 207 3.5 7.8 0.00 0.00 0.00 85 1012.5
20260903051500 85 166 3.5 7.8 0.00 0.00 0.00 85 1012.4
20260903051358 85 186 3.5 7.8 0.00 0.00 0.00 85 1012.4
20260903051257 85 182 3.5 6.1 0.00 0.00 0.00 85 1012.4
20260903051155 85 111 3.5 6.1 0.00 0.00 0.00 85 1012.4
20260903051054 85 197 2.6 6.1 0.00 0.00 0.00 85 1012.4
20260903050954 85 188 1.7 6.1 0.00 0.00 0.00 85 1012.4
20260903050851 85 202 3.5 6.1 0.00 0.00 0.00 85 1012.3
20260903050751 85 224 3.5 6.1 0.00 0.00 0.00 85 1012.4
20260903050648 85 190 3.5 6.1 0.00 0.00 0.00 85 1012.4
20260903050547 85 176 3.5 6.1 0.00 0.00 0.00 85 1012.4
20260903050443 85 203 2.6 6.1 0.00 0.00 0.00 85 1012.4
20260903050340 85 192 2.6 6.1 0.00 0.00 0.00 85 1012.4
20260903050237 85 189 2.6 7.8 0.00 0.00 0.00 85 1012.4
20260903050137 85 206 2.6 7.8 0.00 0.00 0.00 85 1012.4
20260903050035 85 180 3.5 7.8 0.00 0.00 0.00 85 1012.4
20260903045932 85 189 3.5 7.8 0.00 0.00 0.00 85 1012.5
20260903045831 85 182 3.5 7.8 0.00 0.00 0.00 85 1012.5
20260903045731 85 155 2.6 7.8 0.00 0.00 0.00 85 1012.4
20260903045631 85 207 1.7 9.6 0.00 0.00 0.00 85 1012.4
20260903045532 85 175 3.5 9.6 0.00 0.00 0.00 85 1012.5
20260903045431 85 185 4.3 9.6 0.00 0.00 0.00 85 1012.4
20260903045331 85 169 3.5 9.6 0.00 0.00 0.00 85 1012.4
20260903045233 85 171 2.6 9.6 0.00 0.00 0.00 85 1012.4
20260903045131 85 159 3.5 9.6 0.00 0.00 0.00 85 1012.4
20260903045031 85 149 4.3 9.6 0.00 0.00 0.00 85 1012.4
20260903044931 85 85 3.5 9.6 0.00 0.00 0.00 85 1012.5
20260903044832 85 206 4.3 9.6 0.00 0.00 0.00 85 1012.5
20260903044730 85 203 5.2 9.6 0.00 0.00 0.00 85 1012.5
20260903044629 85 197 3.5 7.8 0.00 0.00 0.00 85 1012.5
20260903044527 85 154 1.7 7.8 0.00 0.00 0.00 85 1012.5
20260903044426 85 165 2.6 10.4 0.00 0.00 0.00 85 1012.5
20260903044325 85 186 3.5 10.4 0.00 0.00 0.00 85 1012.5
20260903044224 85 196 2.6 10.4 0.00 0.00 0.00 85 1012.4
20260903044123 85 219 2.6 10.4 0.00 0.00 0.00 86 1012.5
20260903044019 85 193 3.5 10.4 0.00 0.00 0.00 85 1012.4
20260903043918 85 152 3.5 10.4 0.00 0.00 0.00 86 1012.4
20260903043818 85 149 2.6 10.4 0.00 0.00 0.00 86 1012.4
20260903043716 85 185 3.5 10.4 0.00 0.00 0.00 86 1012.4
20260903043615 85 197 5.2 10.4 0.00 0.00 0.00 86 1012.4
20260903043512 85 213 5.2 10.4 0.00 0.00 0.00 86 1012.4
20260903043410 85 140 4.3 8.7 0.00 0.00 0.00 86 1012.4
20260903043305 85 123 3.5 7.8 0.00 0.00 0.00 86 1012.3
20260903043204 85 154 2.6 5.2 0.00 0.00 0.00 86 1012.4
20260903043103 85 130 2.6 5.2 0.00 0.00 0.00 86 1012.4
20260903043005 85 161 2.6 5.2 0.00 0.00 0.00 86 1012.4
20260903042904 85 162 2.6 5.2 0.00 0.00 0.00 86 1012.4
20260903042803 85 121 2.6 7.8 0.00 0.00 0.00 86 1012.4
20260903042703 85 116 2.6 7.8 0.00 0.00 0.00 86 1012.3
20260903042605 85 127 2.6 7.8 0.00 0.00 0.00 86 1012.4
20260903042504 85 114 1.7 7.8 0.00 0.00 0.00 86 1012.4
20260903042401 85 118 1.7 7.8 0.00 0.00 0.00 86 1012.4
20260903042305 85 149 1.7 8.7 0.00 0.00 0.00 86 1012.4
20260903042203 85 109 1.7 8.7 0.00 0.00 0.00 86 1012.4
20260903042102 85 131 2.6 8.7 0.00 0.00 0.00 86 1012.4
20260903042003 85 99 3.5 8.7 0.00 0.00 0.00 86 1012.5
20260903041903 85 159 3.5 8.7 0.00 0.00 0.00 86 1012.4
20260903041803 85 155 2.6 8.7 0.00 0.00 0.00 85 1012.5
20260903041702 85 89 3.5 8.7 0.00 0.00 0.00 85 1012.4
20260903041602 85 34 4.3 8.7 0.00 0.00 0.00 85 1012.4
20260903041503 85 141 3.5 8.7 0.00 0.00 0.00 85 1012.5
20260903041402 85 134 3.5 8.7 0.00 0.00 0.00 85 1012.5
20260903041302 85 189 3.5 8.7 0.00 0.00 0.00 85 1012.5
20260903041204 85 161 2.6 8.7 0.00 0.00 0.00 85 1012.4
20260903041102 85 161 2.6 8.7 0.00 0.00 0.00 85 1012.4
20260903041002 85 178 2.6 8.7 0.00 0.00 0.00 85 1012.4
20260903040902 85 134 3.5 8.7 0.00 0.00 0.00 85 1012.5
20260903040804 85 213 3.5 8.7 0.00 0.00 0.00 85 1012.4
20260903040702 85 192 4.3 8.7 0.00 0.00 0.00 85 1012.3
20260903040602 85 118 3.5 8.7 0.00 0.00 0.00 85 1012.4
20260903040504 85 109 3.5 8.7 0.00 0.00 0.00 85 1012.4
20260903040402 85 142 4.3 8.7 0.00 0.00 0.00 85 1012.3
20260903040302 85 102 4.3 8.7 0.00 0.00 0.00 85 1012.3
20260903040203 85 140 4.3 8.7 0.00 0.00 0.00 85 1012.4
20260903040103 85 207 4.3 8.7 0.00 0.00 0.00 85 1012.4
20260903040003 85 159 4.3 8.7 0.00 0.00 0.00 85 1012.4
20260903035902 85 109 3.5 9.6 0.00 0.00 0.00 85 1012.3
20260903035802 85 175 3.5 9.6 0.00 0.00 0.00 85 1012.4
20260903035702 85 131 3.5 9.6 0.00 0.00 0.00 85 1012.3
20260903035603 85 149 3.5 9.6 0.00 0.00 0.00 85 1012.4
20260903035504 85 145 4.3 9.6 0.00 0.00 0.00 85 1012.3
20260903035403 85 110 4.3 9.6 0.00 0.00 0.00 85 1012.3
20260903035306 85 186 3.5 9.6 0.00 0.00 0.00 85 1012.3
20260903035202 85 165 3.5 9.6 0.00 0.00 0.00 85 1012.3
20260903035103 85 103 3.5 9.6 0.00 0.00 0.00 85 1012.4
20260903035004 85 173 2.6 9.6 0.00 0.00 0.00 85 1012.3
20260903034903 85 149 3.5 6.1 0.00 0.00 0.00 85 1012.3
20260903034803 85 82 2.6 6.1 0.00 0.00 0.00 85 1012.3
20260903034702 85 142 2.6 6.1 0.00 0.00 0.00 85 1012.3
20260903034603 85 140 2.6 8.7 0.00 0.00 0.00 85 1012.3
20260903034504 85 124 3.5 8.7 0.00 0.00 0.00 85 1012.4
20260903034402 85 171 3.5 8.7 0.00 0.00 0.00 85 1012.4
20260903034302 85 113 3.5 8.7 0.00 0.00 0.00 85 1012.3
20260903034202 85 120 3.5 8.7 0.00 0.00 0.00 85 1012.4
20260903034102 85 130 2.6 8.7 0.00 0.00 0.00 85 1012.4
20260903034003 85 120 2.6 8.7 0.00 0.00 0.00 85 1012.3
20260903033902 85 145 3.5 8.7 0.00 0.00 0.00 85 1012.3
20260903033803 85 107 3.5 8.7 0.00 0.00 0.00 85 1012.3
20260903033704 85 127 3.5 8.7 0.00 0.00 0.00 85 1012.3
20260903033603 85 110 3.5 8.7 0.00 0.00 0.00 85 1012.3
20260903033503 85 103 3.5 8.7 0.00 0.00 0.00 85 1012.3
20260903033402 85 120 3.5 8.7 0.00 0.00 0.00 85 1012.2
20260903033302 85 56 3.5 8.7 0.00 0.00 0.00 85 1012.2
20260903033203 85 123 2.6 8.7 0.00 0.00 0.00 85 1012.3
20260903033104 85 152 3.5 8.7 0.00 0.00 0.00 85 1012.3
20260903033004 85 118 4.3 8.7 0.00 0.00 0.00 85 1012.2
20260903032902 85 135 4.3 7.8 0.00 0.00 0.00 85 1012.2
20260903032803 85 149 5.2 7.8 0.00 0.00 0.00 85 1012.2
20260903032703 85 114 5.2 7.8 0.00 0.00 0.00 85 1012.2
20260903032602 85 147 5.2 7.8 0.00 0.00 0.00 85 1012.2
20260903032502 85 154 5.2 7.8 0.00 0.00 0.00 85 1012.2
20260903032403 85 107 4.3 7.8 0.00 0.00 0.00 85 1012.2
20260903032305 85 113 3.5 7.8 0.00 0.00 0.00 85 1012.2
20260903032203 85 94 3.5 7.8 0.00 0.00 0.00 85 1012.2
20260903032103 85 93 4.3 7.8 0.00 0.00 0.00 85 1012.2
20260903032003 85 127 4.3 7.8 0.00 0.00 0.00 85 1012.1
20260903031902 85 114 4.3 7.8 0.00 0.00 0.00 85 1012.3
20260903031802 85 113 4.3 7.8 0.00 0.00 0.00 85 1012.1
20260903031702 85 114 4.3 7.8 0.00 0.00 0.00 85 1012.2
20260903031604 85 114 3.5 7.8 0.00 0.00 0.00 85 1012.1
20260903031502 85 90 3.5 7.8 0.00 0.00 0.00 85 1012.2
20260903031404 85 107 3.5 7.8 0.00 0.00 0.00 85 1012.1
20260903031303 85 116 3.5 7.8 0.00 0.00 0.00 85 1012.1
20260903031202 85 179 4.3 8.7 0.00 0.00 0.00 85 1012.2
20260903031103 85 110 5.2 8.7 0.00 0.00 0.00 85 1012.1
20260903031004 85 111 4.3 8.7 0.00 0.00 0.00 85 1012.1
20260903030903 85 148 3.5 8.7 0.00 0.00 0.00 85 1012.1
20260903030802 85 127 4.3 8.7 0.00 0.00 0.00 85 1012.0
20260903030703 85 100 4.3 8.7 0.00 0.00 0.00 85 1012.1
20260903030602 85 96 3.5 10.4 0.00 0.00 0.00 85 1012.0
20260903030502 85 133 3.5 10.4 0.00 0.00 0.00 85 1012.0
20260903030403 85 80 4.3 11.3 0.00 0.00 0.00 85 1012.1
20260903030303 85 128 4.3 11.3 0.00 0.00 0.00 85 1012.1
20260903030202 85 51 3.5 11.3 0.00 0.00 0.00 85 1012.1
20260903030002 85 159 4.3 11.3 0.00 0.00 0.00 85 1012.0
20260903025902 85 138 4.3 11.3 0.00 0.00 0.00 85 1011.9
20260903025803 85 73 5.2 11.3 0.00 0.00 0.00 85 1011.9
20260903025704 85 134 5.2 11.3 0.00 0.00 0.00 85 1012.0
20260903025602 85 97 5.2 11.3 0.00 0.00 0.00 85 1011.9
20260903025502 85 186 5.2 11.3 0.00 0.00 0.00 85 1012.0
20260903025402 85 157 3.5 7.8 0.00 0.00 0.00 85 1011.9
20260903025301 85 130 4.3 7.8 0.00 0.00 0.00 85 1012.0
20260903025202 85 149 4.3 7.8 0.00 0.00 0.00 85 1011.8
20260903025102 85 109 3.5 7.8 0.00 0.00 0.00 85 1012.0
20260903025003 85 86 3.5 6.1 0.00 0.00 0.00 84 1011.9
20260903024902 85 151 3.5 6.1 0.00 0.00 0.00 84 1011.9
20260903024801 84 123 2.6 6.1 0.00 0.00 0.00 84 1011.9
20260903024703 84 111 3.5 6.1 0.00 0.00 0.00 84 1011.9
20260903024602 84 138 3.5 6.1 0.00 0.00 0.00 84 1012.0
20260903024501 84 110 2.6 4.3 0.00 0.00 0.00 83 1011.9
20260903024402 84 111 2.6 4.3 0.00 0.00 0.00 83 1011.9
20260903024303 84 110 2.6 5.2 0.00 0.00 0.00 83 1011.9
20260903024203 84 99 2.6 5.2 0.00 0.00 0.00 83 1011.9
20260903024103 84 117 2.6 5.2 0.00 0.00 0.00 83 1012.0
20260903024003 84 97 2.6 5.2 0.00 0.00 0.00 83 1011.9
20260903023902 83 97 2.6 5.2 0.00 0.00 0.00 83 1011.9
20260903023802 83 97 2.6 5.2 0.00 0.00 0.00 83 1011.9
20260903023702 83 79 2.6 5.2 0.00 0.00 0.00 83 1011.8
20260903023604 83 79 2.6 5.2 0.00 0.00 0.00 83 1011.8
20260903023502 83 78 3.5 5.2 0.00 0.00 0.00 83 1011.7
20260903023402 83 106 4.3 5.2 0.00 0.00 0.00 83 1011.7
20260903023303 83 120 3.5 5.2 0.00 0.00 0.00 83 1011.7
20260903023202 83 130 3.5 5.2 0.00 0.00 0.00 83 1011.6
20260903023102 83 110 2.6 4.3 0.00 0.00 0.00 83 1011.6
20260903023003 83 107 2.6 4.3 0.00 0.00 0.00 83 1011.5
20260903022903 83 89 1.7 4.3 0.00 0.00 0.00 83 1011.6
20260903022802 83 137 1.7 4.3 0.00 0.00 0.00 83 1011.5
20260903022702 83 109 1.7 4.3 0.00 0.00 0.00 83 1011.4
20260903022603 83 109 2.6 5.2 0.00 0.00 0.00 83 1011.6
20260903022503 83 109 3.5 5.2 0.00 0.00 0.00 83 1011.5
20260903022402 83 116 3.5 5.2 0.00 0.00 0.00 83 1011.5
20260903022306 83 118 2.6 5.2 0.00 0.00 0.00 83 1011.5
20260903022202 83 99 1.7 5.2 0.00 0.00 0.00 83 1011.5
20260903022104 83 97 2.6 5.2 0.00 0.00 0.00 83 1011.4
20260903022004 83 92 3.5 5.2 0.00 0.00 0.00 83 1011.4
20260903021903 83 92 3.5 5.2 0.00 0.00 0.00 83 1011.4
20260903021802 83 92 4.3 5.2 0.00 0.00 0.00 83 1011.4
20260903021702 83 89 4.3 5.2 0.00 0.00 0.00 83 1011.4
20260903021605 83 82 4.3 5.2 0.00 0.00 0.00 83 1011.3
20260903021503 83 69 4.3 5.2 0.00 0.00 0.00 83 1011.3
20260903021402 83 71 3.5 5.2 0.00 0.00 0.00 83 1011.3
20260903021302 83 59 3.5 4.3 0.00 0.00 0.00 83 1011.3
20260903021203 83 61 3.5 4.3 0.00 0.00 0.00 83 1011.3
20260903021102 82 59 2.6 4.3 0.00 0.00 0.00 83 1011.4
20260903021002 82 76 2.6 4.3 0.00 0.00 0.00 83 1011.3
20260903020903 82 76 2.6 5.2 0.00 0.00 0.00 83 1011.3
20260903020802 82 76 2.6 5.2 0.00 0.00 0.00 83 1011.3
20260903020702 82 76 2.6 5.2 0.00 0.00 0.00 83 1011.3
20260903020603 82 76 2.6 5.2 0.00 0.00 0.00 83 1011.3
20260903020503 82 76 2.6 5.2 0.00 0.00 0.00 83 1011.2
20260903020402 82 85 2.6 5.2 0.00 0.00 0.00 83 1011.2
20260903020302 82 82 2.6 5.2 0.00 0.00 0.00 83 1011.1
20260903020204 82 100 3.5 5.2 0.00 0.00 0.00 83 1011.1
20260903020003 82 107 4.3 5.2 0.00 0.00 0.00 83 1011.0
20260903015904 82 109 3.5 4.3 0.00 0.00 0.00 83 1011.0
20260903015802 82 93 2.6 3.5 0.00 0.00 0.00 83 1011.0
20260903015702 82 106 2.6 3.5 0.00 0.00 0.00 83 1011.0
20260903015601 82 135 1.7 3.5 0.00 0.00 0.00 83 1011.0
20260903015502 82 87 0.9 3.5 0.00 0.00 0.00 83 1011.0
20260903015402 82 120 1.7 3.5 0.00 0.00 0.00 83 1011.1
20260903015305 82 118 2.6 3.5 0.00 0.00 0.00 83 1011.1
20260903015203 82 102 3.5 3.5 0.00 0.00 0.00 83 1011.2
20260903015102 82 66 1.7 3.5 0.00 0.00 0.00 83 1011.2
20260903015003 82 65 1.7 3.5 0.00 0.00 0.00 83 1011.3
20260903014902 82 65 1.7 3.5 0.00 0.00 0.00 83 1011.3
20260903014803 82 65 2.6 4.3 0.00 0.00 0.00 83 1011.3
20260903014702 82 65 2.6 4.3 0.00 0.00 0.00 83 1011.4
20260903014602 82 63 1.7 4.3 0.00 0.00 0.00 82 1011.4
20260903014503 82 63 1.7 4.3 0.00 0.00 0.00 82 1011.4
20260903014403 82 63 2.6 5.2 0.00 0.00 0.00 82 1011.5
20260903014302 82 59 1.7 5.2 0.00 0.00 0.00 82 1011.5
20260903014202 82 59 1.7 6.1 0.00 0.00 0.00 82 1011.5
20260903014103 82 59 2.6 6.1 0.00 0.00 0.00 82 1011.5
20260903014004 82 52 3.5 6.1 0.00 0.00 0.00 81 1011.5
20260903013902 82 51 3.5 6.1 0.00 0.00 0.00 81 1011.5
20260903013803 82 32 2.6 8.7 0.00 0.00 0.00 81 1011.7
20260903013702 82 24 2.6 8.7 0.00 0.00 0.00 81 1011.6
20260903013603 83 37 3.5 8.7 0.00 0.00 0.00 81 1011.7
20260903013503 83 32 4.3 8.7 0.00 0.00 0.00 80 1011.7
20260903013403 83 42 4.3 8.7 0.00 0.00 0.00 80 1011.7
20260903013302 83 30 4.3 8.7 0.00 0.00 0.00 80 1011.7
20260903013202 83 30 4.3 8.7 0.00 0.00 0.00 80 1011.6
20260903013103 83 31 4.3 8.7 0.00 0.00 0.00 80 1011.6
20260903013003 83 41 5.2 8.7 0.00 0.00 0.00 80 1011.6
20260903012902 83 24 5.2 8.7 0.00 0.00 0.00 79 1011.5
20260903012804 83 49 5.2 8.7 0.00 0.00 0.00 79 1011.4
20260903012702 83 28 4.3 8.7 0.00 0.00 0.00 79 1011.4
20260903012602 83 30 4.3 8.7 0.00 0.00 0.00 79 1011.3
20260903012503 83 13 4.3 8.7 0.00 0.00 0.00 79 1011.2
20260903012403 83 25 4.3 8.7 0.00 0.00 0.00 79 1011.2
20260903012302 83 54 4.3 9.6 0.00 0.00 0.00 79 1011.2
20260903012202 83 71 4.3 9.6 0.00 0.00 0.00 79 1011.2
20260903012104 83 52 5.2 9.6 0.00 0.00 0.00 79 1011.2
20260903012002 83 68 6.1 10.4 0.00 0.00 0.00 78 1011.3
20260903011903 83 58 5.2 10.4 0.00 0.00 0.00 78 1011.3
20260903011803 83 58 4.3 10.4 0.00 0.00 0.00 78 1011.4
20260903011703 84 47 5.2 13.0 0.00 0.00 0.00 78 1011.4
20260903011602 84 85 6.1 13.0 0.00 0.00 0.00 78 1011.3
20260903011503 84 49 7.0 13.0 0.00 0.00 0.00 78 1011.3
20260903011404 84 61 6.1 13.9 0.00 0.00 0.00 78 1011.3
20260903011303 84 49 5.2 13.9 0.00 0.00 0.00 77 1011.4
20260903011202 84 24 7.0 13.9 0.00 0.00 0.00 77 1011.3
20260903011102 84 49 7.0 13.9 0.00 0.00 0.00 77 1011.3
20260903011003 85 54 5.2 13.9 0.00 0.00 0.00 76 1011.4
20260903010902 85 56 7.0 13.9 0.00 0.00 0.00 76 1011.4
20260903010803 85 39 7.8 13.9 0.00 0.00 0.00 76 1011.4
20260903010704 85 49 8.7 13.9 0.00 0.00 0.00 76 1011.5
20260903010603 85 39 10.4 13.9 0.00 0.00 0.00 76 1011.4
20260903010502 85 27 9.6 13.9 0.00 0.00 0.00 76 1011.4
20260903010403 85 48 8.7 13.9 0.00 0.00 0.00 76 1011.3
20260903010302 86 7 7.8 11.3 0.00 0.00 0.00 76 1011.3
20260903010201 86 24 7.8 11.3 0.00 0.00 0.00 76 1011.2
20260903010004 86 41 7.8 11.3 0.00 0.00 0.00 76 1010.9
20260903005904 86 85 7.8 11.3 0.00 0.00 0.00 76 1010.9
20260903005802 86 71 7.0 11.3 0.00 0.00 0.00 76 1010.9
20260903005703 86 89 6.1 10.4 0.00 0.00 0.00 75 1010.9
20260903005603 86 100 6.1 10.4 0.00 0.00 0.00 75 1010.9
20260903005503 86 62 4.3 12.2 0.00 0.00 0.00 75 1010.8
20260903005403 86 68 4.3 12.2 0.00 0.00 0.00 74 1010.7
20260903005306 86 62 4.3 12.2 0.00 0.00 0.00 74 1010.7
20260903005203 86 68 5.2 12.2 0.00 0.00 0.00 73 1010.6
20260903005102 86 56 7.0 12.2 0.00 0.00 0.00 73 1010.6
20260903005003 86 83 7.0 13.0 0.00 0.00 0.00 73 1010.4
20260903004902 87 34 7.0 13.0 0.00 0.00 0.00 73 1010.4
20260903004803 87 24 7.0 13.0 0.00 0.00 0.00 72 1010.4
20260903004703 87 35 7.8 13.0 0.00 0.00 0.00 71 1010.4
20260903004603 88 37 7.0 13.0 0.00 0.00 0.00 71 1010.4
20260903004502 88 51 4.3 13.0 0.00 0.00 0.00 70 1010.4
20260903004402 89 75 4.3 13.0 0.00 0.00 0.00 69 1010.5
20260903004303 89 52 7.8 13.0 0.00 0.00 0.00 68 1010.4
20260903004202 89 37 8.7 13.0 0.00 0.00 0.00 68 1010.5
20260903004103 89 38 7.8 13.0 0.00 0.00 0.00 66 1010.6
20260903004003 89 104 7.0 11.3 0.00 0.00 0.00 66 1010.5
20260903003903 89 85 6.1 11.3 0.00 0.00 0.00 66 1010.5
20260903003804 89 86 5.2 11.3 0.00 0.00 0.00 66 1010.5
20260903003705 89 90 3.5 9.6 0.00 0.00 0.00 66 1010.5
20260903003602 89 86 3.5 9.6 0.00 0.00 0.00 66 1010.6
20260903003502 89 97 3.5 9.6 0.00 0.00 0.00 66 1010.6
20260903003403 90 120 3.5 9.6 0.00 0.00 0.00 65 1010.6
20260903003304 90 196 3.5 9.6 0.00 0.00 0.00 65 1010.6
20260903003203 90 130 4.3 9.6 0.00 0.00 0.00 65 1010.6
20260903003102 90 42 5.2 9.6 0.00 0.00 0.00 65 1010.6
20260903003005 90 141 5.2 9.6 0.00 0.00 0.00 65 1010.6
20260903002902 90 149 4.3 16.5 0.00 0.00 0.00 65 1010.6
20260903002802 90 175 4.3 16.5 0.00 0.00 0.00 65 1010.6
20260903002702 90 154 4.3 16.5 0.00 0.00 0.00 65 1010.5
20260903002604 90 223 3.5 16.5 0.00 0.00 0.00 65 1010.4
20260903002502 90 102 4.3 16.5 0.00 0.00 0.00 65 1010.4
20260903002402 90 206 4.3 16.5 0.00 0.00 0.00 65 1010.4
20260903002306 90 161 4.3 16.5 0.00 0.00 0.00 65 1010.3
20260903002202 90 237 4.3 16.5 0.00 0.00 0.00 65 1010.3
20260903002102 90 89 5.2 16.5 0.00 0.00 0.00 65 1010.2
20260903002004 90 188 7.0 16.5 0.00 0.00 0.00 65 1010.2
20260903001902 90 111 5.2 16.5 0.00 0.00 0.00 65 1010.1
20260903001803 90 133 5.2 16.5 0.00 0.00 0.00 65 1010.1
20260903001704 90 182 5.2 16.5 0.00 0.00 0.00 65 1010.1
20260903001602 90 162 6.1 16.5 0.00 0.00 0.00 66 1010.0
20260903001502 90 142 6.1 16.5 0.00 0.00 0.00 66 1010.0
20260903001401 90 185 5.2 16.5 0.00 0.00 0.00 66 1010.0
20260903001303 90 76 5.2 17.4 0.00 0.00 0.00 65 1009.9
20260903001203 90 144 7.8 17.4 0.00 0.00 0.00 65 1009.9
20260903001102 90 237 8.7 17.4 0.00 0.00 0.00 65 1009.8
20260903001002 90 189 7.0 17.4 0.00 0.00 0.00 65 1009.8
20260903000902 90 161 7.0 17.4 0.00 0.00 0.00 65 1009.7
20260903000803 90 178 7.0 17.4 0.00 0.00 0.00 65 1009.7
20260903000702 91 173 6.1 17.4 0.00 0.00 0.00 65 1009.6
20260903000603 91 172 6.1 17.4 0.00 0.00 0.00 66 1009.7
20260903000504 91 185 7.8 17.4 0.00 0.00 0.00 65 1009.6
20260903000402 91 152 7.8 17.4 0.00 0.00 0.00 65 1009.5
20260903000303 91 233 7.8 14.8 0.00 0.00 0.00 65 1009.5
20260903000204 91 195 7.8 14.8 0.00 0.00 0.00 65 1009.3
20260903000003 91 152 6.1 13.9 0.00 0.00 0.00 65 1009.3
20260902235903 91 176 4.3 13.9 0.00 0.00 0.00 65 1009.1
20260902235803 91 269 5.2 13.9 0.00 0.00 0.00 65 1009.2
20260902235704 91 99 7.8 13.9 0.00 0.00 0.00 65 1009.2
20260902235603 91 175 8.7 13.9 0.00 0.00 0.00 65 1009.1
20260902235503 91 142 7.0 13.9 0.00 0.00 0.00 65 1009.2
20260902235402 91 171 6.1 13.9 0.00 0.00 0.00 65 1009.2
20260902235305 91 185 7.0 13.9 0.00 0.00 0.00 64 1009.2
20260902235203 91 188 7.0 13.9 0.00 0.00 0.00 64 1009.1
20260902235102 91 103 7.8 13.9 0.00 0.00 0.00 64 1009.1
20260902235003 91 188 6.1 13.9 0.00 0.00 0.00 64 1009.1
20260902234904 92 128 4.3 13.9 0.00 0.00 0.00 64 1009.1
20260902234802 92 152 5.2 13.9 0.00 0.00 0.00 64 1009.1
20260902234701 92 92 5.2 13.9 0.00 0.00 0.00 64 1009.0
20260902234602 92 159 6.1 13.9 0.00 0.00 0.00 64 1009.0
20260902234505 92 159 6.1 13.9 0.00 0.00 0.00 64 1008.9
20260902234402 92 147 5.2 13.9 0.00 0.00 0.00 64 1008.9
20260902234302 92 134 6.1 13.9 0.00 0.00 0.00 63 1008.9
20260902234203 92 188 7.0 13.9 0.00 0.00 0.00 63 1008.9
20260902234103 92 261 7.0 13.9 0.00 0.00 0.00 63 1008.9
20260902234004 92 130 7.0 13.9 0.00 0.00 0.00 63 1009.0
20260902233904 92 164 7.0 13.9 0.00 0.00 0.00 63 1009.0
20260902233803 92 124 6.1 13.9 0.00 0.00 0.00 63 1009.0
20260902233703 92 171 4.3 13.9 0.00 0.00 0.00 63 1009.1
20260902233603 92 168 3.5 14.8 0.00 0.00 0.00 63 1009.0
20260902233505 92 168 5.2 14.8 0.00 0.00 0.00 63 1009.1
20260902233403 92 162 6.1 14.8 0.00 0.00 0.00 63 1009.1
20260902233302 92 116 5.2 14.8 0.00 0.00 0.00 63 1009.1
20260902233203 92 157 6.1 14.8 0.00 0.00 0.00 62 1009.1
20260902233103 92 27 7.0 14.8 0.00 0.00 0.00 62 1009.1
20260902233003 92 134 7.0 14.8 0.00 0.00 0.00 62 1009.2
20260902232903 92 162 7.8 14.8 0.00 0.00 0.00 62 1009.2
20260902232803 92 196 7.8 14.8 0.00 0.00 0.00 62 1009.3
20260902232702 92 164 5.2 14.8 0.00 0.00 0.00 62 1009.2
20260902232602 92 183 3.5 13.9 0.00 0.00 0.00 62 1009.2
20260902232504 92 71 4.3 13.9 0.00 0.00 0.00 62 1009.3
20260902232402 92 154 6.1 13.9 0.00 0.00 0.00 62 1009.3
20260902232302 92 124 6.1 13.9 0.00 0.00 0.00 62 1009.4
20260902232203 93 137 5.2 13.9 0.00 0.00 0.00 62 1009.4
20260902232103 93 255 6.1 13.9 0.00 0.00 0.00 62 1009.4
20260902232004 93 114 6.1 13.9 0.00 0.00 0.00 62 1009.4
20260902231902 93 157 5.2 12.2 0.00 0.00 0.00 62 1009.5
20260902231802 93 207 5.2 11.3 0.00 0.00 0.00 63 1009.4
20260902231703 93 186 5.2 11.3 0.00 0.00 0.00 63 1009.4
20260902231602 93 130 4.3 9.6 0.00 0.00 0.00 63 1009.4
20260902231503 93 109 4.3 9.6 0.00 0.00 0.00 63 1009.4
20260902231402 93 265 3.5 9.6 0.00 0.00 0.00 63 1009.3
20260902231304 93 107 4.3 9.6 0.00 0.00 0.00 63 1009.3
20260902231203 93 179 5.2 9.6 0.00 0.00 0.00 63 1009.3
20260902231104 93 161 5.2 11.3 0.00 0.00 0.00 63 1009.3
20260902231002 93 171 3.5 11.3 0.00 0.00 0.00 63 1009.2
20260902230902 93 180 2.6 11.3 0.00 0.00 0.00 63 1009.2
20260902230803 93 71 4.3 11.3 0.00 0.00 0.00 63 1009.2
20260902230702 93 216 5.2 11.3 0.00 0.00 0.00 63 1009.3
20260902230603 93 137 4.3 11.3 0.00 0.00 0.00 63 1009.2
20260902230502 93 142 4.3 11.3 0.00 0.00 0.00 63 1009.3
20260902230359 93 189 5.2 11.3 0.00 0.00 0.00 63 1009.2
20260902230258 93 162 6.1 11.3 0.00 0.00 0.00 63 1009.4
20260902230155 93 134 5.2 11.3 0.00 0.00 0.00 63 1009.4
20260902230056 93 157 4.3 11.3 0.00 0.00 0.00 63 1009.3
20260902225954 93 179 5.2 11.3 0.00 0.00 0.00 63 1009.3
20260902225856 93 142 5.2 13.9 0.00 0.00 0.00 63 1009.3
20260902225754 93 157 5.2 13.9 0.00 0.00 0.00 63 1009.1
20260902225655 93 131 5.2 13.9 0.00 0.00 0.00 63 1009.1
20260902225556 93 172 5.2 13.9 0.00 0.00 0.00 63 1009.1
20260902225455 93 188 5.2 13.9 0.00 0.00 0.00 63 1009.0
20260902225354 93 144 5.2 13.9 0.00 0.00 0.00 63 1009.1
20260902225254 93 176 5.2 13.9 0.00 0.00 0.00 63 1009.0
20260902225154 93 152 6.1 13.9 0.00 0.00 0.00 63 1009.0
20260902225054 93 235 5.2 13.9 0.00 0.00 0.00 63 1009.0
20260902224955 93 234 5.2 13.9 0.00 0.00 0.00 62 1009.0
20260902224856 93 159 5.2 13.9 0.00 0.00 0.00 62 1009.0
20260902224755 94 175 6.1 14.8 0.00 0.00 0.00 62 1009.0
20260902224655 94 130 6.1 14.8 0.00 0.00 0.00 62 1009.0
20260902224554 94 147 5.2 14.8 0.00 0.00 0.00 62 1009.0
20260902224455 94 133 5.2 14.8 0.00 0.00 0.00 62 1009.1
20260902224354 94 155 6.1 14.8 0.00 0.00 0.00 62 1009.2
20260902224254 94 151 6.1 14.8 0.00 0.00 0.00 61 1009.1
20260902224155 94 149 7.0 14.8 0.00 0.00 0.00 61 1009.1
20260902224054 94 169 7.8 14.8 0.00 0.00 0.00 61 1009.2
20260902223955 94 175 7.0 14.8 0.00 0.00 0.00 61 1009.2
20260902223856 94 128 7.0 14.8 0.00 0.00 0.00 61 1009.3
20260902223754 94 133 5.2 11.3 0.00 0.00 0.00 61 1009.3
20260902223655 94 159 3.5 9.6 0.00 0.00 0.00 62 1009.3
20260902223554 94 137 3.5 9.6 0.00 0.00 0.00 61 1009.3
20260902223455 94 127 3.5 9.6 0.00 0.00 0.00 62 1009.3
20260902223354 94 176 3.5 9.6 0.00 0.00 0.00 62 1009.3
20260902223254 94 97 4.3 11.3 0.00 0.00 0.00 62 1009.2
20260902223155 94 166 4.3 12.2 0.00 0.00 0.00 61 1009.3
20260902223055 94 135 3.5 12.2 0.00 0.00 0.00 62 1009.3
20260902222953 94 149 4.3 12.2 0.00 0.00 0.00 62 1009.3
20260902222854 94 128 5.2 12.2 0.00 0.00 0.00 61 1009.3
20260902222756 94 147 4.3 12.2 0.00 0.00 0.00 61 1009.3
20260902222653 94 149 4.3 12.2 0.00 0.00 0.00 61 1009.2
20260902222554 94 207 5.2 12.2 0.00 0.00 0.00 61 1009.2
20260902222455 94 137 4.3 12.2 0.00 0.00 0.00 61 1009.3
20260902222355 94 82 5.2 12.2 0.00 0.00 0.00 61 1009.3
20260902222253 94 133 5.2 12.2 0.00 0.00 0.00 61 1009.2
20260902222155 94 255 4.3 10.4 0.00 0.00 0.00 62 1009.4
20260902222055 94 128 3.5 11.3 0.00 0.00 0.00 62 1009.3
20260902221954 94 120 3.5 11.3 0.00 0.00 0.00 61 1009.3
20260902221854 94 120 4.3 11.3 0.00 0.00 0.00 61 1009.4
20260902221754 94 141 5.2 11.3 0.00 0.00 0.00 61 1009.4
20260902221654 94 235 4.3 11.3 0.00 0.00 0.00 61 1009.4
20260902221554 94 123 2.6 12.2 0.00 0.00 0.00 61 1009.4
20260902221454 94 157 5.2 12.2 0.00 0.00 0.00 61 1009.4
20260902221355 94 151 5.2 12.2 0.00 0.00 0.00 61 1009.3
20260902221254 94 99 5.2 12.2 0.00 0.00 0.00 61 1009.3
20260902221154 94 154 6.1 13.0 0.00 0.00 0.00 60 1009.4
20260902221056 94 148 5.2 13.0 0.00 0.01 0.00 61 1009.4
20260902220953 94 135 4.3 13.0 0.00 0.01 0.00 61 1009.4
20260902220854 94 121 5.2 13.0 0.00 0.01 0.00 61 1009.3
20260902220753 94 83 7.8 13.0 0.00 0.01 0.00 60 1009.4
20260902220653 94 140 6.1 13.0 0.00 0.01 0.00 60 1009.4
20260902220554 94 121 4.3 13.0 0.00 0.01 0.00 61 1009.3
20260902220453 94 142 5.2 13.0 0.00 0.01 0.00 61 1009.4
20260902220354 94 185 7.0 13.0 0.00 0.01 0.00 60 1009.3
20260902220254 94 176 6.1 13.0 0.00 0.01 0.00 60 1009.4
20260902220153 94 212 5.2 13.0 0.00 0.01 0.00 60 1009.4
20260902220053 94 92 4.3 13.0 0.00 0.01 0.00 60 1009.4
20260902215954 94 172 6.1 13.0 0.00 0.01 0.00 60 1009.4
20260902215854 94 147 7.0 13.0 0.00 0.01 0.00 60 1009.4
20260902215753 94 135 5.2 12.2 0.00 0.01 0.00 60 1009.4
20260902215654 94 169 5.2 12.2 0.00 0.01 0.00 61 1009.5
20260902215554 94 140 5.2 12.2 0.00 0.01 0.00 61 1009.4
20260902215453 94 92 5.2 12.2 0.00 0.01 0.00 61 1009.4
20260902215354 94 120 5.2 12.2 0.00 0.01 0.00 61 1009.5
20260902215254 94 147 6.1 12.2 0.00 0.01 0.00 61 1009.4
20260902215153 94 168 7.0 12.2 0.00 0.01 0.00 60 1009.4
20260902215053 95 172 6.1 12.2 0.00 0.01 0.00 61 1009.6
20260902214955 95 144 5.2 12.2 0.00 0.01 0.00 61 1009.5
20260902214853 94 259 4.3 12.2 0.00 0.01 0.00 61 1009.6
20260902214752 95 141 6.1 12.2 0.00 0.01 0.00 60 1009.6
20260902214654 95 125 6.1 12.2 0.00 0.01 0.00 60 1009.4
20260902214553 95 200 4.3 11.3 0.00 0.01 0.00 60 1009.4
20260902214453 95 173 4.3 11.3 0.00 0.01 0.00 60 1009.5
20260902214353 95 164 6.1 11.3 0.00 0.01 0.00 60 1009.4
20260902214255 95 124 7.0 11.3 0.00 0.01 0.00 60 1009.4
20260902214153 95 171 6.1 11.3 0.00 0.01 0.00 60 1009.5
20260902214053 95 169 4.3 12.2 0.00 0.01 0.00 61 1009.4
20260902213954 95 190 3.5 13.0 0.00 0.01 0.00 61 1009.4
20260902213854 95 175 5.2 13.0 0.00 0.01 0.00 61 1009.4
20260902213754 95 144 5.2 13.0 0.00 0.01 0.00 61 1009.5
20260902213652 95 145 4.3 13.0 0.00 0.01 0.00 61 1009.4
20260902213553 95 226 4.3 13.0 0.00 0.01 0.00 61 1009.5
20260902213454 95 124 3.5 13.0 0.00 0.01 0.00 61 1009.5
20260902213353 95 159 3.5 13.0 0.00 0.01 0.00 61 1009.5
20260902213253 95 193 6.1 13.0 0.00 0.01 0.00 60 1009.5
20260902213154 95 171 7.8 13.0 0.00 0.01 0.00 60 1009.5
20260902213052 95 142 5.2 13.0 0.00 0.01 0.00 60 1009.5
20260902212953 95 92 5.2 10.4 0.00 0.01 0.00 60 1009.5
20260902212853 95 168 4.3 10.4 0.00 0.01 0.00 60 1009.5
20260902212752 96 85 4.3 10.4 0.00 0.01 0.00 60 1009.5
20260902212652 95 166 5.2 10.4 0.00 0.01 0.00 60 1009.5
20260902212553 96 151 4.3 11.3 0.00 0.01 0.00 60 1009.5
20260902212453 96 193 3.5 11.3 0.00 0.01 0.00 60 1009.6
20260902212353 96 83 3.5 11.3 0.00 0.01 0.00 60 1009.6
20260902212253 96 80 5.2 11.3 0.00 0.01 0.00 60 1009.6
20260902212153 96 138 5.2 11.3 0.00 0.01 0.00 61 1009.6
20260902212052 96 110 5.2 11.3 0.00 0.01 0.00 60 1009.6
20260902211952 96 147 5.2 11.3 0.00 0.01 0.00 60 1009.5
20260902211853 96 149 5.2 11.3 0.00 0.01 0.00 60 1009.6
20260902211753 96 192 6.1 11.3 0.00 0.01 0.00 60 1009.6
20260902211652 96 137 5.2 11.3 0.00 0.01 0.00 60 1009.6
20260902211552 96 216 4.3 9.6 0.00 0.01 0.00 60 1009.6
20260902211454 96 197 4.3 9.6 0.00 0.01 0.00 60 1009.6
20260902211352 96 123 5.2 9.6 0.00 0.01 0.00 59 1009.6
20260902211252 96 120 5.2 9.6 0.00 0.01 0.00 59 1009.8
20260902211154 96 155 4.3 9.6 0.00 0.01 0.00 59 1009.7
20260902211053 96 209 4.3 10.4 0.00 0.01 0.00 59 1009.8
20260902210953 96 212 2.6 10.4 0.00 0.01 0.00 60 1009.8
20260902210854 96 188 2.6 10.4 0.00 0.01 0.00 60 1009.8
20260902210753 96 152 3.5 10.4 0.00 0.01 0.00 60 1009.8
20260902210654 96 230 3.5 10.4 0.00 0.01 0.00 60 1009.8
20260902210551 96 106 3.5 10.4 0.00 0.01 0.00 60 1009.8
20260902210453 96 113 5.2 10.4 0.00 0.01 0.00 60 1009.8
20260902210353 96 195 5.2 10.4 0.00 0.01 0.00 60 1009.8
20260902210253 96 94 5.2 10.4 0.00 0.01 0.00 60 1009.8
20260902210154 96 154 5.2 10.4 0.00 0.01 0.00 60 1009.8
20260902210053 95 61 5.2 11.3 0.00 0.01 0.00 61 1009.7
20260902205951 96 130 5.2 11.3 0.00 0.01 0.00 60 1009.7
20260902205851 96 149 4.3 11.3 0.00 0.01 0.00 60 1009.8
20260902205752 96 157 6.1 11.3 0.00 0.01 0.00 60 1009.8
20260902205653 96 103 6.1 11.3 0.00 0.01 0.00 61 1009.7
20260902205552 95 69 5.2 11.3 0.00 0.01 0.00 60 1009.7
20260902205453 95 145 5.2 11.3 0.00 0.01 0.00 60 1009.7
20260902205352 95 114 6.1 11.3 0.00 0.01 0.00 60 1009.7
20260902205251 95 176 6.1 11.3 0.00 0.01 0.00 60 1009.7
20260902205151 95 145 6.1 11.3 0.00 0.01 0.00 60 1009.6
20260902205053 95 121 5.2 11.3 0.00 0.01 0.00 60 1009.6
20260902204952 95 197 5.2 10.4 0.00 0.03 0.00 60 1009.6
20260902204852 95 149 5.2 10.4 0.00 0.03 0.00 60 1009.6
20260902204751 95 161 4.3 10.4 0.00 0.03 0.00 61 1009.7
20260902204652 95 86 4.3 10.4 0.00 0.03 0.00 60 1009.6
20260902204551 95 121 5.2 10.4 0.00 0.03 0.00 61 1009.7
20260902204451 95 48 5.2 10.4 0.00 0.03 0.00 60 1009.7
20260902204352 95 164 5.2 10.4 0.00 0.03 0.00 60 1009.8
20260902204251 95 213 4.3 10.4 0.00 0.03 0.00 60 1009.8
20260902204152 95 179 5.2 10.4 0.00 0.03 0.00 59 1009.7
20260902204053 95 97 5.2 10.4 0.00 0.03 0.00 59 1009.7
20260902203953 96 172 5.2 10.4 0.00 0.03 0.00 59 1009.9
20260902203852 96 172 6.1 10.4 0.00 0.03 0.00 58 1009.8
20260902203752 96 206 5.2 10.4 0.00 0.03 0.00 57 1009.8
20260902203652 96 169 4.3 10.4 0.00 0.04 0.00 57 1009.9
20260902203551 96 169 4.3 10.4 0.00 0.04 0.00 57 1009.9
20260902203451 96 192 5.2 10.4 0.00 0.04 0.00 57 1009.9
20260902203353 96 192 5.2 10.4 0.00 0.04 0.00 57 1010.0
20260902203252 96 219 5.2 10.4 0.00 0.04 0.00 56 1010.0
20260902203151 96 193 4.3 10.4 0.00 0.05 0.00 56 1010.0
20260902203051 96 121 5.2 10.4 0.00 0.05 0.00 57 1010.1
20260902202953 96 189 5.2 10.4 0.00 0.05 0.00 57 1010.1
20260902202851 96 196 5.2 11.3 0.00 0.05 0.00 57 1010.1
20260902202752 96 175 5.2 12.2 0.00 0.05 0.00 57 1010.1
20260902202652 96 203 4.3 12.2 0.00 0.05 0.00 57 1010.1
20260902202552 96 110 4.3 12.2 0.00 0.06 0.00 57 1010.1
20260902202451 96 224 4.3 12.2 0.00 0.06 0.00 57 1010.1
20260902202351 96 234 5.2 12.2 0.00 0.06 0.00 56 1010.2
20260902202253 96 231 4.3 12.2 0.00 0.06 0.00 56 1010.1
20260902202151 96 209 5.2 12.2 0.00 0.06 0.00 56 1010.1
20260902202051 96 180 7.8 12.2 0.00 0.06 0.00 56 1010.2
20260902201952 97 212 7.8 13.0 0.00 0.06 0.00 56 1010.2
20260902201851 97 186 6.1 13.0 0.00 0.06 0.00 57 1010.2
20260902201752 97 171 3.5 13.0 0.00 0.06 0.00 57 1010.1
20260902201652 97 237 5.2 13.0 0.00 0.06 0.00 57 1010.1
20260902201553 97 224 6.1 13.0 0.00 0.06 0.00 56 1010.0
20260902201451 97 214 5.2 13.0 0.00 0.06 0.00 56 1010.2
20260902201352 97 192 4.3 13.0 0.00 0.06 0.00 55 1010.1
20260902201251 97 259 5.2 13.0 0.00 0.06 0.00 56 1010.1
20260902201150 97 185 7.0 13.9 0.00 0.06 0.00 55 1010.1
20260902201051 97 162 7.0 14.8 0.00 0.06 0.00 56 1010.1
20260902200951 97 125 5.2 14.8 0.00 0.06 0.00 56 1010.1
20260902200852 97 204 5.2 14.8 0.00 0.06 0.00 55 1010.1
20260902200750 98 182 5.2 14.8 0.00 0.06 0.00 55 1010.1
20260902200650 98 190 5.2 14.8 0.00 0.06 0.00 55 1010.1
20260902200553 98 71 5.2 14.8 0.00 0.06 0.00 55 1010.2
20260902200451 97 104 5.2 14.8 0.00 0.06 0.00 56 1010.1
20260902200350 97 189 7.8 14.8 0.00 0.06 0.00 57 1010.1
20260902200251 97 207 10.4 14.8 0.00 0.06 0.00 56 1010.2
20260902200151 97 255 9.6 14.8 0.00 0.06 0.00 55 1010.2
20260902200050 98 261 7.8 12.2 0.00 0.06 0.00 56 1010.2
20260902195950 98 199 7.0 12.2 0.00 0.06 0.00 55 1010.3
20260902195851 98 245 6.1 11.3 0.00 0.06 0.00 56 1010.2
20260902195750 98 213 5.2 11.3 0.00 0.06 0.00 57 1010.3
20260902195651 97 165 4.3 11.3 0.00 0.06 0.00 57 1010.4
20260902195550 97 196 4.3 11.3 0.00 0.06 0.00 58 1010.3
20260902195451 96 219 5.2 11.3 0.00 0.06 0.00 58 1010.4
20260902195351 96 178 5.2 11.3 0.00 0.06 0.00 58 1010.4
20260902195251 96 161 5.2 11.3 0.00 0.06 0.00 59 1010.5
20260902195151 95 134 6.1 11.3 0.00 0.06 0.00 58 1010.5
20260902195051 95 172 6.1 11.3 0.00 0.06 0.00 59 1010.5
20260902194951 95 157 5.2 12.2 0.00 0.06 0.00 58 1010.5
20260902194852 95 164 4.3 12.2 0.00 0.06 0.00 58 1010.5
20260902194751 95 210 6.1 12.2 0.00 0.06 0.00 57 1010.6
20260902194650 95 219 7.0 12.2 0.00 0.06 0.00 57 1010.6
20260902194550 95 237 6.1 12.2 0.00 0.06 0.00 58 1010.6
20260902194451 96 214 6.1 12.2 0.00 0.06 0.00 58 1010.6
20260902194350 96 219 6.1 12.2 0.00 0.06 0.00 57 1010.6
20260902194251 96 233 7.0 12.2 0.00 0.06 0.00 58 1010.7
20260902194152 96 234 7.0 12.2 0.00 0.06 0.00 58 1010.8
20260902194050 96 230 7.0 12.2 0.00 0.06 0.00 58 1010.7
20260902193950 96 244 7.0 11.3 0.00 0.06 0.00 57 1010.7
20260902193850 96 233 6.1 11.3 0.00 0.06 0.00 57 1010.7
20260902193752 96 216 5.2 11.3 0.00 0.06 0.00 56 1010.7
20260902193650 97 203 6.1 11.3 0.00 0.06 0.00 56 1010.7
20260902193550 97 248 7.8 11.3 0.00 0.06 0.00 55 1010.8
20260902193450 98 255 7.8 11.3 0.00 0.06 0.00 55 1010.8
20260902193350 98 255 7.0 11.3 0.00 0.06 0.00 55 1010.8
20260902193251 98 226 5.2 11.3 0.00 0.06 0.00 56 1010.8
20260902193152 97 189 4.3 11.3 0.00 0.06 0.00 57 1010.8
20260902193052 97 209 4.3 11.3 0.00 0.06 0.00 57 1010.9
20260902192951 96 261 7.0 11.3 0.00 0.06 0.00 59 1010.9
20260902192850 96 261 7.0 11.3 0.00 0.06 0.00 59 1011.0
20260902192751 96 261 7.0 11.3 0.00 0.06 0.00 59 1010.9
20260902192650 96 261 7.0 11.3 0.00 0.06 0.00 59 1011.0
20260902192550 96 247 7.0 10.4 0.00 0.06 0.00 59 1011.0
20260902192450 95 257 6.1 10.4 0.00 0.06 0.00 59 1011.1
20260902192351 95 227 7.0 10.4 0.00 0.06 0.00 59 1011.0
20260902192250 95 234 6.1 10.4 0.00 0.06 0.00 59 1011.0
20260902192149 95 196 5.2 11.3 0.00 0.06 0.00 60 1011.0
20260902192050 95 250 4.3 12.2 0.00 0.06 0.00 60 1011.0
20260902191949 95 237 4.3 12.2 0.00 0.06 0.00 60 1011.0
20260902191850 95 210 5.2 16.5 0.00 0.06 0.00 61 1011.0
20260902191749 94 135 5.2 16.5 0.00 0.06 0.00 61 1011.0
20260902191650 94 248 5.2 16.5 0.00 0.06 0.00 61 1011.2
20260902191550 94 254 7.0 16.5 0.00 0.06 0.00 61 1011.2
20260902191449 94 234 7.0 16.5 0.00 0.06 0.00 62 1011.1
20260902191351 94 237 7.0 16.5 0.00 0.06 0.00 62 1011.2
20260902191250 94 248 8.7 16.5 0.00 0.06 0.00 62 1011.1
20260902191149 94 203 9.6 16.5 0.00 0.06 0.00 62 1011.2
20260902191050 94 233 9.6 16.5 0.00 0.06 0.00 62 1011.1
20260902190949 94 254 7.8 16.5 0.00 0.06 0.00 62 1011.1
20260902190849 94 250 5.2 11.3 0.00 0.06 0.00 62 1011.1
20260902190749 94 262 6.1 11.3 0.00 0.06 0.00 62 1011.2
20260902190651 94 286 6.1 11.3 0.00 0.06 0.00 62 1011.1
20260902190549 94 262 6.1 11.3 0.00 0.06 0.00 62 1011.1
20260902190449 94 243 5.2 10.4 0.00 0.06 0.00 62 1011.2
20260902190351 94 240 4.3 10.4 0.00 0.06 0.00 63 1011.2
20260902190249 93 217 5.2 10.4 0.00 0.06 0.00 63 1011.1
20260902190150 93 237 6.1 10.4 0.00 0.06 0.00 63 1011.2
20260902190050 93 243 6.1 10.4 0.00 0.06 0.00 63 1011.1
20260902185951 93 228 7.0 12.2 0.00 0.06 0.00 63 1011.1
20260902185849 93 213 6.1 12.2 0.00 0.06 0.00 63 1011.1
20260902185749 94 238 6.1 12.2 0.00 0.06 0.00 63 1011.1
20260902185651 94 241 6.1 12.2 0.00 0.06 0.00 63 1011.2
20260902185548 94 238 5.2 12.2 0.00 0.06 0.00 64 1011.2
20260902185449 93 223 5.2 12.2 0.00 0.06 0.00 64 1011.2
20260902185349 93 227 5.2 12.2 0.00 0.06 0.00 64 1011.1
20260902185251 93 247 6.1 12.2 0.00 0.06 0.00 64 1011.2
20260902185149 93 244 7.8 12.2 0.00 0.06 0.00 64 1011.2
20260902185049 93 238 8.7 12.2 0.00 0.06 0.00 64 1011.3
20260902184950 93 234 7.0 11.3 0.00 0.06 0.00 63 1011.2
20260902184849 94 261 6.1 11.3 0.00 0.06 0.00 64 1011.3
20260902184749 93 248 6.1 11.3 0.00 0.06 0.00 64 1011.3
20260902184649 93 238 7.0 11.3 0.00 0.06 0.00 64 1011.4
20260902184550 93 227 7.8 10.4 0.00 0.06 0.00 64 1011.4
20260902184448 93 220 7.0 10.4 0.00 0.06 0.00 64 1011.3
20260902184348 93 248 6.1 10.4 0.00 0.06 0.00 64 1011.4
20260902184250 93 228 6.1 10.4 0.00 0.06 0.00 64 1011.3
20260902184148 93 244 6.1 10.4 0.00 0.06 0.00 64 1011.4
20260902184048 93 213 6.1 10.4 0.00 0.06 0.00 64 1011.4
20260902183948 93 237 6.1 10.4 0.00 0.06 0.00 65 1011.4
20260902183849 93 250 5.2 11.3 0.00 0.06 0.00 65 1011.5
20260902183748 93 217 5.2 11.3 0.00 0.06 0.00 66 1011.5
20260902183649 93 217 4.3 11.3 0.00 0.06 0.00 66 1011.6
20260902183550 92 210 5.2 11.3 0.00 0.06 0.00 66 1011.6
20260902183448 92 209 5.2 11.3 0.00 0.06 0.00 66 1011.6
20260902183348 92 243 6.1 11.3 0.00 0.06 0.00 66 1011.5
20260902183248 92 251 5.2 11.3 0.00 0.06 0.00 66 1011.6
20260902183149 92 228 5.2 11.3 0.00 0.06 0.00 67 1011.6
20260902183048 92 237 7.0 11.3 0.00 0.06 0.00 66 1011.6
20260902182949 92 230 7.0 12.2 0.00 0.06 0.00 66 1011.6
20260902182849 92 214 5.2 12.2 0.00 0.06 0.00 67 1011.7
20260902182749 92 245 6.1 12.2 0.00 0.06 0.00 67 1011.6
20260902182648 92 238 6.1 12.2 0.00 0.06 0.00 67 1011.7
20260902182548 92 243 5.2 12.2 0.00 0.06 0.00 67 1011.8
20260902182451 91 233 5.2 12.2 0.00 0.06 0.00 67 1011.7
20260902182348 91 228 6.1 12.2 0.00 0.06 0.00 67 1011.7
20260902182249 91 271 7.0 12.2 0.00 0.06 0.00 66 1011.8
20260902182149 91 233 7.8 12.2 0.00 0.06 0.00 66 1011.8
20260902182048 91 240 7.0 12.2 0.00 0.06 0.00 66 1011.9
20260902181948 91 269 5.2 10.4 0.00 0.06 0.00 67 1011.8
20260902181848 92 306 5.2 10.4 0.00 0.06 0.00 67 1011.9
20260902181749 92 310 5.2 10.4 0.00 0.06 0.00 67 1011.8
20260902181648 91 271 5.2 10.4 0.00 0.06 0.00 68 1012.0
20260902181548 91 233 6.1 10.4 0.00 0.06 0.00 68 1011.8
20260902181450 91 178 7.0 10.4 0.00 0.06 0.00 69 1012.0
20260902181349 91 192 6.1 12.2 0.00 0.06 0.00 69 1012.0
20260902181249 91 257 5.2 12.2 0.00 0.06 0.00 69 1012.0
20260902181148 91 209 6.1 12.2 0.00 0.06 0.00 69 1012.1
20260902181049 91 240 6.1 12.2 0.00 0.06 0.00 69 1012.1
20260902180948 91 238 5.2 12.2 0.00 0.06 0.00 68 1012.1
20260902180847 91 245 5.2 12.2 0.00 0.06 0.00 68 1012.1
20260902180749 91 288 5.2 12.2 0.00 0.06 0.00 68 1012.2
20260902180649 91 261 6.1 12.2 0.00 0.06 0.00 68 1012.2
20260902180549 91 244 7.8 12.2 0.00 0.06 0.00 69 1012.3
20260902180449 91 238 8.7 12.2 0.00 0.06 0.00 68 1012.2
20260902180348 91 227 8.7 12.2 0.00 0.06 0.00 68 1012.3
20260902180248 91 234 7.8 11.3 0.00 0.06 0.00 68 1012.3
20260902180147 91 212 7.8 11.3 0.00 0.06 0.00 68 1012.3
20260902180051 91 227 7.0 11.3 0.00 0.06 0.00 68 1012.3
20260902175947 91 269 6.1 11.3 0.00 0.06 0.00 68 1012.3
20260902175847 91 223 6.1 11.3 0.00 0.06 0.00 68 1012.4
20260902175749 91 278 5.2 11.3 0.00 0.06 0.00 68 1012.4
20260902175649 91 257 5.2 11.3 0.00 0.06 0.00 68 1012.5
20260902175548 91 233 7.0 11.3 0.00 0.06 0.00 68 1012.5
20260902175447 91 206 7.8 11.3 0.00 0.06 0.00 68 1012.4
20260902175348 91 226 7.8 11.3 0.00 0.06 0.00 68 1012.5
20260902175247 90 243 7.0 10.4 0.00 0.06 0.00 68 1012.5
20260902175147 90 227 7.0 10.4 0.00 0.06 0.00 68 1012.5
20260902175047 91 271 7.0 11.3 0.00 0.06 0.00 69 1012.6
20260902174948 91 265 6.1 11.3 0.00 0.06 0.00 69 1012.6
20260902174848 91 302 5.2 11.3 0.00 0.06 0.00 69 1012.6
20260902174747 91 272 6.1 11.3 0.00 0.06 0.00 69 1012.5
20260902174648 91 261 7.8 11.3 0.00 0.06 0.00 68 1012.6
20260902174547 91 240 7.8 11.3 0.00 0.06 0.00 68 1012.6
20260902174447 91 262 6.1 13.0 0.00 0.06 0.00 69 1012.7
20260902174348 91 238 5.2 13.0 0.00 0.06 0.00 69 1012.7
20260902174248 91 213 6.1 13.0 0.00 0.06 0.00 69 1012.7
20260902174147 91 269 7.0 13.0 0.00 0.06 0.00 69 1012.7
20260902174047 91 235 6.1 13.0 0.00 0.06 0.00 69 1012.7
20260902173947 90 285 7.0 13.0 0.00 0.06 0.00 70 1012.7
20260902173847 90 243 7.8 13.0 0.00 0.06 0.00 70 1012.7
20260902173747 90 226 7.8 13.0 0.00 0.06 0.00 70 1012.7
20260902173648 90 235 8.7 13.0 0.00 0.06 0.00 69 1012.8
20260902173548 90 258 9.6 13.0 0.00 0.06 0.00 69 1012.8
20260902173448 90 245 7.8 13.9 0.00 0.06 0.00 69 1012.8
20260902173348 90 195 7.0 13.9 0.00 0.06 0.00 70 1012.8
20260902173248 90 254 5.2 13.9 0.00 0.06 0.00 70 1012.8
20260902173147 90 234 6.1 13.9 0.00 0.06 0.00 70 1012.8
20260902173047 90 224 7.0 13.9 0.00 0.06 0.00 70 1012.9
20260902172949 90 231 7.8 14.8 0.00 0.06 0.00 70 1012.8
20260902172848 90 199 8.7 14.8 0.00 0.06 0.00 70 1012.9
20260902172747 90 247 8.7 14.8 0.00 0.06 0.00 70 1012.8
20260902172647 89 231 9.6 14.8 0.00 0.06 0.00 71 1012.8
20260902172549 89 219 7.0 14.8 0.00 0.06 0.00 71 1012.9
20260902172447 89 235 7.0 14.8 0.00 0.06 0.00 71 1012.9
20260902172347 89 231 7.8 14.8 0.00 0.06 0.00 71 1013.0
20260902172248 89 274 9.6 14.8 0.00 0.06 0.00 72 1012.9
20260902172147 89 252 10.4 14.8 0.00 0.06 0.00 71 1012.9
20260902172047 89 214 11.3 14.8 0.00 0.06 0.00 71 1013.0
20260902171949 89 240 10.4 14.8 0.00 0.06 0.00 71 1013.0
20260902171847 89 233 10.4 14.8 0.00 0.06 0.00 71 1013.0
20260902171747 89 212 9.6 14.8 0.00 0.06 0.00 72 1013.1
20260902171648 89 250 9.6 14.8 0.00 0.06 0.00 72 1013.0
20260902171549 89 240 9.6 14.8 0.00 0.06 0.00 72 1013.0
20260902171448 89 206 7.8 14.8 0.00 0.06 0.00 73 1013.0
20260902171347 89 243 7.8 12.2 0.00 0.06 0.00 73 1013.1
20260902171247 89 219 8.7 12.2 0.00 0.06 0.00 74 1013.2
20260902171147 89 169 7.8 10.4 0.00 0.06 0.00 75 1013.2
20260902171046 89 250 7.8 12.2 0.00 0.06 0.00 75 1013.2
20260902170946 89 227 6.1 12.2 0.00 0.06 0.00 75 1013.2
20260902170847 88 272 5.2 12.2 0.00 0.06 0.00 75 1013.2
20260902170747 88 193 7.0 12.2 0.00 0.06 0.00 75 1013.2
20260902170646 88 243 6.1 12.2 0.00 0.06 0.00 75 1013.1
20260902170546 88 247 5.2 12.2 0.00 0.06 0.00 76 1013.1
20260902170448 88 237 5.2 12.2 0.00 0.06 0.00 76 1013.2
20260902170346 88 240 5.2 12.2 0.00 0.06 0.00 76 1013.3
20260902170246 88 298 6.1 12.2 0.00 0.06 0.00 76 1013.2
20260902170148 88 290 7.0 12.2 0.00 0.06 0.00 76 1013.2
20260902170047 88 231 6.1 13.0 0.00 0.06 0.00 76 1013.3
20260902165946 88 250 5.2 13.0 0.00 0.06 0.00 76 1013.3
20260902165847 88 257 5.2 13.0 0.00 0.06 0.00 76 1013.3
20260902165747 88 262 5.2 13.0 0.00 0.06 0.00 76 1013.3
20260902165649 88 320 6.1 13.0 0.00 0.06 0.00 76 1013.3
20260902165546 88 288 6.1 13.0 0.00 0.06 0.00 76 1013.4
20260902165447 88 298 5.2 13.0 0.00 0.06 0.00 77 1013.4
20260902165346 88 286 5.2 13.0 0.00 0.06 0.00 77 1013.4
20260902165246 88 296 6.1 13.0 0.00 0.06 0.00 76 1013.3
20260902165147 88 299 6.1 13.0 0.00 0.06 0.00 77 1013.3
20260902165047 88 278 7.0 11.3 0.00 0.06 0.00 76 1013.3
20260902164946 88 257 7.8 12.2 0.00 0.06 0.00 77 1013.4
20260902164846 88 255 6.1 12.2 0.00 0.06 0.00 77 1013.3
20260902164749 88 204 4.3 12.2 0.00 0.06 0.00 77 1013.4
20260902164646 88 264 4.3 12.2 0.00 0.06 0.00 77 1013.3
20260902164545 88 240 6.1 12.2 0.00 0.06 0.00 78 1013.4
20260902164447 88 233 7.0 12.2 0.00 0.06 0.00 78 1013.3
20260902164345 87 247 7.8 12.2 0.00 0.06 0.00 77 1013.4
20260902164246 87 234 7.0 12.2 0.00 0.06 0.00 78 1013.4
20260902164146 87 281 7.8 12.2 0.00 0.06 0.00 78 1013.4
20260902164047 87 209 9.6 12.2 0.00 0.06 0.00 78 1013.4
20260902163947 87 230 8.7 12.2 0.00 0.06 0.00 78 1013.4
20260902163846 87 275 6.1 11.3 0.00 0.06 0.00 78 1013.5
20260902163747 87 250 4.3 11.3 0.00 0.06 0.00 79 1013.5
20260902163646 87 274 5.2 11.3 0.00 0.06 0.00 79 1013.4
20260902163548 87 268 6.1 11.3 0.00 0.06 0.00 79 1013.4
20260902163448 87 324 5.2 11.3 0.00 0.06 0.00 79 1013.4
20260902163347 87 238 5.2 11.3 0.00 0.06 0.00 79 1013.5
20260902163245 87 257 7.0 11.3 0.00 0.06 0.00 79 1013.5
20260902163146 87 286 5.2 11.3 0.00 0.06 0.00 79 1013.4
20260902163047 87 237 4.3 11.3 0.00 0.06 0.00 79 1013.5
20260902162947 87 290 5.2 12.2 0.00 0.06 0.00 79 1013.5
20260902162846 87 344 6.1 12.2 0.00 0.06 0.00 79 1013.4
20260902162747 87 272 7.8 12.2 0.00 0.06 0.00 79 1013.5
20260902162647 87 251 8.7 12.2 0.00 0.06 0.00 79 1013.6
20260902162546 87 251 8.7 12.2 0.00 0.06 0.00 79 1013.5
20260902162447 87 251 8.7 12.2 0.00 0.06 0.00 79 1013.5
20260902162347 87 251 8.7 12.2 0.00 0.06 0.00 79 1013.5
20260902162246 87 251 8.7 12.2 0.00 0.06 0.00 79 1013.5
20260902162133 87 238 8.7 12.2 0.00 0.06 0.00 79 1013.5
20260902162032 87 296 6.1 12.2 0.00 0.06 0.00 79 1013.5
20260902161931 87 314 7.0 12.2 0.00 0.06 0.00 79 1013.5
20260902161831 87 262 7.8 12.2 0.00 0.06 0.00 79 1013.4
20260902161732 87 254 7.8 13.0 0.00 0.06 0.00 79 1013.4
20260902161631 87 278 7.8 13.0 0.00 0.06 0.00 79 1013.5
20260902161532 87 248 7.0 13.0 0.00 0.06 0.00 79 1013.5
20260902161431 87 283 7.0 13.0 0.00 0.06 0.00 79 1013.4
20260902161331 87 209 7.8 13.0 0.00 0.06 0.00 79 1013.5
20260902161232 87 243 7.0 13.0 0.00 0.06 0.00 79 1013.5
20260902161132 87 247 6.1 13.0 0.00 0.06 0.00 79 1013.4
20260902161032 87 300 7.8 13.9 0.00 0.06 0.00 79 1013.5
20260902160931 87 258 7.8 13.9 0.00 0.06 0.00 79 1013.5
20260902160831 87 231 7.0 13.9 0.00 0.06 0.00 79 1013.5
20260902160732 87 281 6.1 13.9 0.00 0.06 0.00 79 1013.5
20260902160632 87 285 6.1 13.9 0.00 0.06 0.00 80 1013.5
20260902160533 87 231 6.1 13.9 0.00 0.06 0.00 80 1013.5
20260902160432 87 247 7.0 13.9 0.00 0.06 0.00 80 1013.5
20260902160332 87 326 7.0 13.9 0.00 0.06 0.00 80 1013.5
20260902160231 87 234 7.8 13.9 0.00 0.06 0.00 80 1013.4
20260902160132 87 252 8.7 13.9 0.00 0.06 0.00 80 1013.5
20260902160032 87 264 7.8 12.2 0.00 0.06 0.00 80 1013.4
20260902155932 87 241 7.8 12.2 0.00 0.06 0.00 80 1013.4
20260902155831 87 269 7.8 12.2 0.00 0.06 0.00 80 1013.4
20260902155730 87 286 7.8 12.2 0.00 0.06 0.00 80 1013.4
20260902155633 87 241 7.0 12.2 0.00 0.06 0.00 80 1013.5
20260902155531 87 268 7.0 12.2 0.00 0.06 0.00 80 1013.4
20260902155431 87 305 6.1 12.2 0.00 0.06 0.00 81 1013.4
20260902155332 87 279 6.1 11.3 0.00 0.06 0.00 81 1013.3
20260902155231 86 299 7.8 11.3 0.00 0.06 0.00 81 1013.4
20260902155131 87 281 5.2 11.3 0.00 0.06 0.00 81 1013.3
20260902155031 87 250 6.1 11.3 0.00 0.06 0.00 81 1013.3
20260902154931 87 276 7.8 11.3 0.00 0.06 0.00 81 1013.3
20260902154832 87 324 7.0 10.4 0.00 0.06 0.00 81 1013.3
20260902154730 87 243 5.2 10.4 0.00 0.06 0.00 81 1013.3
20260902154632 87 247 5.2 10.4 0.00 0.06 0.00 81 1013.2
20260902154532 87 245 4.3 10.4 0.00 0.06 0.00 82 1013.3
20260902154432 86 189 5.2 13.0 0.00 0.06 0.00 82 1013.3
20260902154334 86 203 6.1 13.9 0.00 0.06 0.00 82 1013.3
20260902154232 86 171 6.1 13.9 0.00 0.06 0.00 82 1013.3
20260902154130 86 206 6.1 17.4 0.00 0.06 0.00 82 1013.3
20260902154031 86 203 6.1 17.4 0.00 0.06 0.00 82 1013.3
20260902153932 86 209 5.2 17.4 0.00 0.06 0.00 82 1013.2
20260902153832 86 214 5.2 17.4 0.00 0.06 0.00 82 1013.3
20260902153731 86 245 5.2 17.4 0.00 0.06 0.00 82 1013.2
20260902153632 86 202 7.8 17.4 0.00 0.06 0.00 82 1013.3
20260902153532 85 200 9.6 17.4 0.00 0.06 0.00 82 1013.3
20260902153432 86 213 11.3 17.4 0.00 0.06 0.00 82 1013.3
20260902153331 86 203 10.4 17.4 0.00 0.06 0.00 82 1013.4
20260902153232 86 183 9.6 17.4 0.00 0.06 0.00 82 1013.3
20260902153131 86 169 9.6 13.9 0.00 0.06 0.00 82 1013.3
20260902153031 86 159 8.7 13.9 0.00 0.06 0.00 82 1013.2
20260902152932 86 125 7.8 13.9 0.00 0.06 0.00 82 1013.3
20260902152831 85 145 6.1 12.2 0.00 0.06 0.00 83 1013.3
20260902152731 85 178 4.3 12.2 0.00 0.06 0.00 82 1013.3
20260902152633 85 189 5.2 12.2 0.00 0.06 0.00 82 1013.2
20260902152526 85 188 5.2 12.2 0.00 0.06 0.00 83 1013.4
20260902152424 85 142 5.2 13.0 0.00 0.06 0.00 83 1013.2
20260902152324 85 178 6.1 13.0 0.00 0.06 0.00 83 1013.3
20260902152221 85 173 5.2 13.0 0.00 0.06 0.00 84 1013.3
20260902152121 85 172 6.1 13.0 0.00 0.06 0.00 84 1013.2
20260902152018 85 154 7.8 13.0 0.00 0.06 0.00 84 1013.2
20260902151918 85 168 7.8 14.8 0.00 0.06 0.00 84 1013.2
20260902151815 85 155 7.0 15.6 0.00 0.06 0.00 84 1013.3
20260902151714 85 152 7.8 16.5 0.00 0.06 0.00 84 1013.2
20260902151609 85 161 7.8 16.5 0.00 0.06 0.00 84 1013.2
20260902151509 85 168 7.8 16.5 0.00 0.06 0.00 84 1013.3
20260902151406 85 173 7.8 16.5 0.00 0.06 0.00 84 1013.3
20260902151305 85 149 4.3 16.5 0.00 0.06 0.00 84 1013.2
20260902151205 85 179 8.7 16.5 0.00 0.06 0.00 84 1013.3
20260902151103 85 179 8.7 16.5 0.00 0.06 0.00 84 1013.3
20260902150959 85 0 10.4 16.5 0.00 0.06 0.00 84 1013.3
20260902150857 85 224 9.6 16.5 0.00 0.06 0.00 85 1013.2
20260902150757 85 219 7.8 13.9 0.00 0.06 0.00 85 1013.2
20260902150654 85 224 6.1 14.8 0.00 0.06 0.00 85 1013.3
20260902150552 85 293 7.0 14.8 0.00 0.06 0.00 85 1013.3
20260902150453 85 299 8.7 14.8 0.00 0.06 0.00 86 1013.2
20260902150348 85 272 9.6 14.8 0.00 0.06 0.00 85 1013.2
20260902150247 85 238 9.6 14.8 0.00 0.06 0.00 86 1013.3
20260902150146 85 237 8.7 14.8 0.00 0.06 0.00 86 1013.2
20260902150048 85 224 9.6 14.8 0.00 0.06 0.00 86 1013.2
20260902145944 85 235 8.7 14.8 0.00 0.06 0.00 86 1013.2
20260902145843 84 250 9.6 14.8 0.00 0.06 0.00 86 1013.2
20260902145743 84 235 9.6 14.8 0.00 0.06 0.00 86 1013.1
20260902145645 84 224 7.0 13.9 0.00 0.06 0.00 86 1013.2
20260902145543 84 259 7.0 13.9 0.00 0.06 0.00 86 1013.1
20260902145444 84 248 8.7 13.9 0.00 0.06 0.00 86 1013.3
20260902145345 84 278 7.8 13.9 0.00 0.06 0.00 86 1013.2
20260902145243 84 251 6.1 13.9 0.00 0.06 0.00 86 1013.2
20260902145143 84 227 6.1 13.0 0.00 0.06 0.00 87 1013.1
20260902145043 84 259 7.0 13.0 0.00 0.06 0.00 87 1013.1
20260902144945 84 255 7.0 13.0 0.00 0.06 0.00 87 1013.1
20260902144844 84 227 7.8 13.0 0.00 0.06 0.00 87 1013.1
20260902144743 84 202 7.8 13.0 0.00 0.06 0.00 87 1013.2
20260902144644 84 212 6.1 12.2 0.00 0.06 0.00 87 1013.1
20260902144544 84 272 6.1 12.2 0.00 0.06 0.00 87 1013.1
20260902144443 84 261 6.1 11.3 0.00 0.06 0.00 87 1013.2
20260902144343 84 262 7.0 11.3 0.00 0.06 0.00 88 1013.2
20260902144246 84 251 7.8 11.3 0.00 0.06 0.00 87 1013.2
20260902144143 84 264 5.2 9.6 0.00 0.06 0.00 88 1013.2
20260902144043 84 255 3.5 9.6 0.00 0.06 0.00 88 1013.2
20260902143945 84 235 4.3 9.6 0.00 0.06 0.00 88 1013.2
20260902143843 83 279 5.2 9.6 0.00 0.06 0.00 88 1013.2
20260902143745 83 265 5.2 9.6 0.00 0.06 0.00 88 1013.2
20260902143645 83 235 6.1 9.6 0.00 0.06 0.00 88 1013.2
20260902143543 83 217 6.1 9.6 0.00 0.06 0.00 88 1013.2
20260902143444 83 235 5.2 9.6 0.00 0.06 0.00 88 1013.2
20260902143343 83 296 5.2 11.3 0.00 0.06 0.00 88 1013.3
20260902143244 83 244 4.3 11.3 0.00 0.06 0.00 88 1013.1
20260902143144 83 288 4.3 11.3 0.00 0.06 0.00 89 1013.1
20260902143044 83 213 5.2 11.3 0.00 0.06 0.00 89 1013.1
20260902142943 83 255 5.2 11.3 0.00 0.06 0.00 89 1013.1
20260902142844 83 212 5.2 11.3 0.00 0.06 0.00 89 1013.1
20260902142743 83 250 5.2 11.3 0.00 0.06 0.00 89 1013.1
20260902142645 83 247 6.1 11.3 0.00 0.06 0.00 89 1013.1
20260902142544 83 247 6.1 11.3 0.00 0.06 0.00 89 1013.2
20260902142443 83 238 6.1 11.3 0.00 0.06 0.00 89 1013.1
20260902142343 83 188 6.1 11.3 0.00 0.06 0.00 89 1013.2
20260902142244 83 262 5.2 11.3 0.00 0.06 0.00 89 1013.1
20260902142143 83 278 5.2 11.3 0.00 0.06 0.00 89 1013.2
20260902142043 83 254 5.2 11.3 0.00 0.06 0.00 89 1013.1
20260902141942 83 251 6.1 11.3 0.00 0.06 0.00 89 1013.1
20260902141845 83 259 6.1 11.3 0.00 0.06 0.00 89 1013.1
20260902141744 83 223 7.0 11.3 0.00 0.06 0.00 89 1013.1
20260902141643 83 221 6.1 11.3 0.00 0.06 0.00 89 1013.2
20260902141543 83 207 5.2 11.3 0.00 0.06 0.00 89 1013.1
20260902141443 83 223 5.2 11.3 0.00 0.06 0.00 89 1013.2
20260902141343 83 227 4.3 11.3 0.00 0.06 0.00 89 1013.2
20260902141242 83 255 5.2 11.3 0.00 0.06 0.00 89 1013.0
20260902141143 83 272 5.2 12.2 0.00 0.06 0.00 89 1013.1
20260902141042 83 252 6.1 12.2 0.00 0.06 0.00 89 1013.2
20260902140942 83 237 7.0 12.2 0.00 0.06 0.00 89 1013.1
20260902140845 83 252 7.8 12.2 0.00 0.06 0.00 89 1013.0
20260902140743 83 221 7.0 12.2 0.00 0.06 0.00 89 1013.1
20260902140644 83 221 6.1 12.2 0.00 0.06 0.00 89 1013.1
20260902140543 83 247 6.1 12.2 0.00 0.06 0.00 89 1013.0
20260902140443 83 241 6.1 12.2 0.00 0.06 0.00 89 1013.1
20260902140343 83 243 7.8 12.2 0.00 0.06 0.00 89 1013.0
20260902140244 83 299 8.7 12.2 0.00 0.06 0.00 89 1013.1
20260902140144 83 210 7.8 12.2 0.00 0.06 0.00 89 1013.0
20260902140042 83 269 7.0 12.2 0.00 0.06 0.00 89 1013.1
20260902135942 83 247 5.2 12.2 0.00 0.06 0.00 89 1013.1
20260902135842 83 228 6.1 12.2 0.00 0.06 0.00 89 1013.1
20260902135744 83 219 7.0 12.2 0.00 0.06 0.00 89 1013.0
20260902135643 83 238 7.0 12.2 0.00 0.06 0.00 89 1013.0
20260902135542 83 288 6.1 10.4 0.00 0.06 0.00 89 1013.1
20260902135443 83 227 5.2 10.4 0.00 0.06 0.00 89 1013.1
20260902135345 83 259 5.2 10.4 0.00 0.06 0.00 89 1013.1
20260902135242 83 226 5.2 10.4 0.00 0.06 0.00 90 1013.1
20260902135142 83 283 4.3 10.4 0.00 0.06 0.00 90 1013.0
20260902135044 83 279 5.2 10.4 0.00 0.06 0.00 90 1013.0
20260902134942 82 240 6.1 10.4 0.00 0.06 0.00 90 1013.0
20260902134842 82 240 6.1 10.4 0.00 0.06 0.00 90 1013.1
20260902134744 82 238 6.1 10.4 0.00 0.06 0.00 90 1013.0
20260902134641 82 230 6.1 10.4 0.00 0.06 0.00 90 1013.0
20260902134543 82 268 6.1 10.4 0.00 0.06 0.00 90 1013.0
20260902134443 82 245 6.1 10.4 0.00 0.06 0.00 90 1013.0
20260902134343 82 235 6.1 10.4 0.00 0.06 0.00 90 1013.0
20260902134242 82 293 6.1 10.4 0.00 0.06 0.00 90 1013.0
20260902134141 82 309 6.1 10.4 0.00 0.06 0.00 90 1013.0
20260902134043 82 244 6.1 11.3 0.00 0.06 0.00 90 1013.0
20260902133942 82 227 7.0 11.3 0.00 0.06 0.00 90 1013.0
20260902133842 82 231 5.2 13.0 0.00 0.06 0.00 90 1013.0
20260902133743 82 228 5.2 13.0 0.00 0.06 0.00 90 1013.0
20260902133642 82 281 5.2 13.0 0.00 0.06 0.00 90 1013.1
20260902133541 82 237 5.2 13.0 0.00 0.06 0.00 90 1013.0
20260902133442 82 237 5.2 13.0 0.00 0.06 0.00 91 1013.1
20260902133342 82 235 5.2 13.0 0.00 0.06 0.00 91 1013.1
20260902133243 82 264 6.1 13.0 0.00 0.06 0.00 90 1013.1
20260902133142 82 285 7.8 13.0 0.00 0.06 0.00 90 1013.0
20260902133042 82 268 8.7 13.0 0.00 0.06 0.00 90 1013.0
20260902132943 82 203 7.0 13.0 0.00 0.06 0.00 91 1013.0
20260902132841 82 262 6.1 9.6 0.00 0.06 0.00 91 1013.0
20260902132741 82 266 5.2 9.6 0.00 0.06 0.00 91 1013.0
20260902132643 82 234 5.2 9.6 0.00 0.06 0.00 91 1012.9
20260902132541 82 207 6.1 9.6 0.00 0.06 0.00 91 1012.9
20260902132441 82 224 6.1 9.6 0.00 0.06 0.00 91 1012.9
20260902132342 82 231 6.1 9.6 0.00 0.06 0.00 91 1012.9
20260902132242 82 188 6.1 9.6 0.00 0.06 0.00 91 1012.8
20260902132141 82 244 6.1 9.6 0.00 0.06 0.00 91 1012.9
20260902132041 82 210 5.2 9.6 0.00 0.06 0.00 91 1012.8
20260902131942 82 247 5.2 9.6 0.00 0.06 0.00 91 1012.8
20260902131841 82 223 6.1 9.6 0.00 0.06 0.00 91 1012.8
20260902131741 82 240 5.2 9.6 0.00 0.06 0.00 91 1012.8
20260902131641 82 245 5.2 9.6 0.00 0.06 0.00 91 1012.8
20260902131541 82 219 5.2 12.2 0.00 0.06 0.00 91 1012.8
20260902131441 82 219 6.1 12.2 0.00 0.06 0.00 91 1012.8
20260902131341 82 235 6.1 12.2 0.00 0.06 0.00 91 1012.8
20260902131242 82 219 5.2 12.2 0.00 0.06 0.00 91 1012.8
20260902131141 82 244 6.1 12.2 0.00 0.06 0.00 91 1012.8
20260902131041 82 216 6.1 12.2 0.00 0.06 0.00 91 1012.7
20260902130942 82 238 6.1 12.2 0.00 0.06 0.00 91 1012.7
20260902130842 82 234 5.2 12.2 0.00 0.06 0.00 91 1012.7
20260902130741 82 247 7.0 12.2 0.00 0.06 0.00 91 1012.6
20260902130641 82 228 7.8 12.2 0.00 0.06 0.00 91 1012.6
20260902130543 82 248 7.0 11.3 0.00 0.06 0.00 91 1012.7
20260902130440 82 234 6.1 10.4 0.00 0.06 0.00 91 1012.7
20260902130341 82 234 5.2 10.4 0.00 0.06 0.00 91 1012.7
20260902130243 82 255 5.2 8.7 0.00 0.06 0.00 91 1012.7
20260902130141 82 219 4.3 8.7 0.00 0.06 0.00 91 1012.7
20260902130041 82 282 5.2 8.7 0.00 0.06 0.00 91 1012.7
20260902125941 82 224 5.2 8.7 0.00 0.06 0.00 91 1012.7
20260902125843 82 243 6.1 10.4 0.00 0.06 0.00 91 1012.7
20260902125742 82 238 6.1 11.3 0.00 0.06 0.00 91 1012.7
20260902125641 82 258 6.1 11.3 0.00 0.06 0.00 91 1012.8
20260902125542 82 231 6.1 11.3 0.00 0.06 0.00 91 1012.7
20260902125441 82 258 5.2 11.3 0.00 0.06 0.00 91 1012.7
20260902125341 82 266 5.2 11.3 0.00 0.06 0.00 92 1012.7
20260902125242 82 230 4.3 11.3 0.00 0.06 0.00 91 1012.7
20260902125142 82 276 5.2 11.3 0.00 0.06 0.00 92 1012.7
20260902125041 82 213 7.0 11.3 0.00 0.06 0.00 91 1012.7
20260902124939 82 223 7.8 11.3 0.00 0.06 0.00 91 1012.6
20260902124839 82 227 7.0 12.2 0.00 0.06 0.00 91 1012.5
20260902124736 82 220 6.1 12.2 0.00 0.06 0.00 91 1012.5
20260902124635 82 268 7.0 12.2 0.00 0.06 0.00 91 1012.5
20260902124533 82 240 6.1 12.2 0.00 0.06 0.00 91 1012.4
20260902124431 82 243 6.1 12.2 0.00 0.06 0.00 91 1012.5
20260902124331 82 230 7.0 13.0 0.00 0.06 0.00 91 1012.5
20260902124231 82 261 7.8 13.0 0.00 0.06 0.00 91 1012.4
20260902124128 82 247 7.0 13.0 0.00 0.06 0.00 91 1012.4
20260902124026 82 257 7.8 13.0 0.00 0.06 0.00 91 1012.5
20260902123925 82 271 7.8 13.0 0.00 0.06 0.00 91 1012.4
20260902123823 82 278 7.8 13.0 0.00 0.06 0.00 91 1012.5